Calls for Service
Disclaimer: This information is not intended to be used as official crime data. This program does not provide information about all crimes, and excludes specific incidents such as sexual assaults and child abuse. The City of Conway Police Department makes every effort to produce and publish current and accurate information. No warranties, expressed or implied, are provided for the data herein, its use, or its interpretation. The services provided are for informational purposes only and should not be relied on for any type of legal action.
| Call Number | Case Number | Address | Call Time | Incident Type |
|---|---|---|---|---|
| 26-0901410 | 60 WINBERRY DR | September 5, 2026 1:55 pm | REPOSSESSION | |
| 26-0901404 | 1105 PRAIRIE ST | September 5, 2026 1:35 pm | ATTEMPT TO CONTACT | |
| 26-0901403 | 95 SNUGGS CIR | September 5, 2026 1:30 pm | 911 HANGUP CALL | |
| 26-0901402 | 204 BURGESS LN | September 5, 2026 1:25 pm | ATTEMPT TO CONTACT | |
| 26-0901399 | 1105 PRAIRIE ST | September 5, 2026 1:05 pm | ATTEMPT TO CONTACT | |
| 26-0901398 | 2215 RAINTREE DR | September 5, 2026 1:03 pm | 911 HANGUP CALL | |
| 26-0901395 | 2400 BRUCE ST | September 5, 2026 12:54 pm | UNKNOWN TROUBLE | |
| 26-0901392 | 1105 PRAIRIE ST | September 5, 2026 12:35 pm | FOUND PROPERTY | |
| 26-0901391 | 124 I40EB | September 5, 2026 12:31 pm | RECKLESS DRIVER | |
| 26-0901390 | 335 STURGIS RD | September 5, 2026 12:28 pm | NO CONTACT ORDER VIOLATION | |
| 26-0901389 | 210 RADCLIFFE DR | September 5, 2026 12:16 pm | HARASSING COMMUNICATIONS | |
| 26-0901388 | 715 FIELDSTONE LN | September 5, 2026 12:11 pm | OPEN DOOR/WINDOW/FENCE | |
| 26-0901386 | 150 SKYLINE DR | September 5, 2026 12:04 pm | ATTEMPT TO CONTACT | |
| 26-0901385 | 1150 SKYLINE DR | September 5, 2026 12:03 pm | STALLED VEHICLE | |
| 26-0901382 | 14 W MAIN ST | September 5, 2026 11:56 am | CITIZEN ASSIST | |
| 26-0901381 | 26-0901381 | 1345 E OAK ST | September 5, 2026 11:55 am | PROPERTY DAMAGE |
| 26-0901379 | 160 LINDER RD | September 5, 2026 11:38 am | CHECK ON THE WELFARE | |
| 26-0901372 | 26-0901372 | 1155 SKYLINE DR | September 5, 2026 10:54 am | DISTURBANCE |
| 26-0901371 | 1155 SKYLINE DR | September 5, 2026 10:44 am | ACCIDENT - PRIVATE PROPERTY | |
| 26-0901370 | 1105 PRAIRIE ST | September 5, 2026 10:33 am | ATTEMPT TO CONTACT | |
| 26-0901367 | 408 DURHAM ST | September 5, 2026 10:18 am | ASSIST FIRE | |
| 26-0901365 | 340 HIGHWAY 64 E | September 5, 2026 10:14 am | ACCIDENT - PROPERTY DAMAGE | |
| 26-0901360 | 1749 OLD MORRILTON HIGHWAY | September 5, 2026 9:51 am | ATTEMPT TO CONTACT | |
| 26-0901359 | 2695 DAVE WARD DR | September 5, 2026 9:41 am | SUPPLEMENT REPORT CALL | |
| 26-0901357 | 1051 HIGHWAY 64 E | September 5, 2026 9:35 am | ACCIDENT - PROPERTY DAMAGE | |
| 26-0901356 | 25 HAMLETT DR | September 5, 2026 9:34 am | ASSIST FIRE | |
| 26-0901354 | 1105 PRAIRIE ST | September 5, 2026 9:08 am | ATTEMPT TO CONTACT | |
| 26-0901351 | 400 INTERSTATE 40 RAMP | September 5, 2026 8:58 am | TRAFFIC LIGHT PROBLEM | |
| 26-0901350 | 826 HIGHWAY 365 | September 5, 2026 8:58 am | DOMESTIC DISTURBANCE | |
| 26-0901349 | 401 2ND ST | September 5, 2026 8:51 am | LOUD NOISE-MUSIC | |
| 26-0901346 | 40 WESTIN DR | September 5, 2026 8:33 am | REPOSSESSION | |
| 26-0901345 | 24 JOHNSON CIR | September 5, 2026 8:27 am | DOMESTIC DISTURBANCE | |
| 26-0901344 | 582 HIGHWAY 365 | September 5, 2026 8:27 am | CHECK ON THE WELFARE | |
| 26-0901342 | 1601 S DONAGHEY AVE | September 5, 2026 8:17 am | ORDINANCE VIOLATION | |
| 26-0901341 | 27 WESTIN DR | September 5, 2026 7:35 am | SHOTS FIRED | |
| 26-0901340 | 1162 WOODSIDE DR | September 5, 2026 7:21 am | SHOTS FIRED | |
| 26-0901339 | 3800 KENNEDY LN | September 5, 2026 6:52 am | SHOTS FIRED | |
| 26-0901338 | 831 NUTTERS CHAPEL RD | September 5, 2026 6:42 am | REPOSSESSION | |
| 26-0901334 | 3727 RYAN RD | September 5, 2026 5:48 am | ATTEMPT TO CONTACT | |
| 26-0901333 | 39 FOOTHILL DR | September 5, 2026 5:47 am | HARASSMENT | |
| 26-0901330 | 26-0901330 | 150 AMITY RD | September 5, 2026 5:40 am | ACCIDENT - PERSONAL INJURY |
| 26-0901328 | 26-0901328 | 1805 OTT MEMORIAL BLVD | September 5, 2026 5:31 am | THEFT OF PROPERTY |
| 26-0901327 | 270 HIGHWAY 65 N | September 5, 2026 5:21 am | SUSPICIOUS ACTIVITY | |
| 26-0901325 | 21 DUNBAR RD | September 5, 2026 5:20 am | NO CONTACT ORDER VIOLATION | |
| 26-0901324 | 4599 HIGHWAY 25 | September 5, 2026 4:26 am | ABANDONED VEHICLE | |
| 26-0901320 | 205 E OAK ST | September 5, 2026 3:37 am | CHECK ON THE WELFARE | |
| 26-0901310 | 750 S HOGAN LN | September 5, 2026 2:41 am | CRIMINAL MISCHIEF | |
| 26-0901308 | 51 PARADISE CIR | September 5, 2026 2:39 am | PROWLER | |
| 26-0901306 | 1105 PRAIRIE ST | September 5, 2026 2:19 am | RECOVERED PROPERTY | |
| 26-0901305 | 13 FORESTER DR | September 5, 2026 2:16 am | PROWLER | |
| 26-0901304 | 26-0901304 | 3030 PEBBLE BEACH DR | September 5, 2026 2:14 am | DOMESTIC DISTURBANCE |
| 26-0901303 | 2195 DAVE WARD DR | September 5, 2026 2:04 am | INTOXICATED PERSON | |
| 26-0901300 | 100 BILL HEGEMAN BLVD | September 5, 2026 12:44 am | CHECK ON THE WELFARE | |
| 26-0901298 | 26-0901298 | 3730 SHOCK LOOP | September 5, 2026 12:24 am | PROWLER |
| 26-0901291 | 1116 GUM ST | September 4, 2026 11:56 pm | CHECK ON THE WELFARE | |
| 26-0901289 | 655 ELSINGER BLVD | September 4, 2026 11:51 pm | CHECKING VEHICLE | |
| 26-0901288 | 334 DONAGHEY AVE | September 4, 2026 11:51 pm | LOUD NOISE-MUSIC | |
| 26-0901285 | 1105 DAVE WARD DR | September 4, 2026 11:43 pm | CHECKING VEHICLE | |
| 26-0901282 | 1799 S DONAGHEY AVE | September 4, 2026 11:31 pm | CHECK ON THE WELFARE | |
| 26-0901279 | 2235 E OAK ST | September 4, 2026 11:25 pm | THEFT OF PROPERTY | |
| 26-0901276 | 1116 GUM ST | September 4, 2026 11:06 pm | TRESPASSING | |
| 26-0901272 | 2325 TYLER ST | September 4, 2026 10:46 pm | CHECKING VEHICLE | |
| 26-0901270 | 10 ANTELOPE TRL | September 4, 2026 10:27 pm | BARKING DOG COMPLAINT | |
| 26-0901268 | 279 STURGIS RD | September 4, 2026 10:21 pm | ROAD RAGE | |
| 26-0901263 | 4720 STOCKTON RD | September 4, 2026 9:54 pm | CHECK ON THE WELFARE | |
| 26-0901262 | 303 CENTER ST | September 4, 2026 9:52 pm | CHECK ON THE WELFARE | |
| 26-0901260 | 727 HIGHWAY 365 | September 4, 2026 9:45 pm | SHOTS FIRED | |
| 26-0901258 | 359 HIGHWAY 25 N | September 4, 2026 9:37 pm | CITIZEN ASSIST | |
| 26-0901257 | 311 OAK ST | September 4, 2026 9:19 pm | CITIZEN ASSIST | |
| 26-0901255 | 238 HIGHWAY 365 | September 4, 2026 9:12 pm | CITIZEN ASSIST | |
| 26-0901254 | 20 HIAWATHA LN | September 4, 2026 8:57 pm | TRESPASSING | |
| 26-0901251 | 801 LOCUST AVE | September 4, 2026 8:44 pm | THEFT OF PROPERTY | |
| 26-0901250 | 489 HIGHWAY 65 N | September 4, 2026 8:43 pm | RECKLESS DRIVER | |
| 26-0901249 | 2360 SANDERS ST | September 4, 2026 8:36 pm | ACCIDENT - PRIVATE PROPERTY | |
| 26-0901247 | 13 PHILLIPS PLACE DR | September 4, 2026 8:31 pm | FOUND PROPERTY | |
| 26-0901245 | 26-0901245 | 1425 E OAK ST | September 4, 2026 8:23 pm | ACCIDENT - FATALITY |
| 26-0901243 | 2439 WILMINGTON DR | September 4, 2026 8:10 pm | CHECKING VEHICLE | |
| 26-0901241 | 132 I40EB | September 4, 2026 8:01 pm | LOG VEHICLE | |
| 26-0901236 | 2135 DILLARD DR | September 4, 2026 7:52 pm | CHECK ON THE WELFARE | |
| 26-0901234 | 26-0901234 | 212 WILLOW ST | September 4, 2026 7:48 pm | TERRORISTIC THREATENING |
| 26-0901233 | 1245 MCNUTT RD | September 4, 2026 7:42 pm | SUPPLEMENT REPORT CALL | |
| 26-0901231 | 1826 HOGAN LN | September 4, 2026 7:40 pm | CHECK ON THE WELFARE | |
| 26-0901230 | 30 WHITE OAK RD | September 4, 2026 7:38 pm | CHECK ON THE WELFARE | |
| 26-0901229 | 1105 PRAIRIE ST | September 4, 2026 7:36 pm | ATTEMPT TO CONTACT | |
| 26-0901228 | 475 ROBINS ST | September 4, 2026 7:36 pm | CRIMINAL MISCHIEF | |
| 26-0901226 | 1306 HIGHWAY 65 N | September 4, 2026 7:02 pm | CHECKING VEHICLE | |
| 26-0901225 | 419 E OAK ST | September 4, 2026 7:01 pm | ACCIDENT - PROPERTY DAMAGE | |
| 26-0901223 | 2430 SANDERS ST | September 4, 2026 6:57 pm | ATTEMPT TO CONTACT | |
| 26-0901222 | 3700 JEANNA DR | September 4, 2026 6:57 pm | CIVIL STAND BY | |
| 26-0901219 | 700 SKYLINE DR | September 4, 2026 6:48 pm | STALLED VEHICLE | |
| 26-0901217 | 1 E MAIN ST | September 4, 2026 6:46 pm | ATTEMPT TO CONTACT | |
| 26-0901214 | 1105 PRAIRIE ST | September 4, 2026 6:27 pm | ATTEMPT TO CONTACT | |
| 26-0901210 | 1499 DONAGHEY AVE | September 4, 2026 6:05 pm | ACCIDENT - HIT AND RUN | |
| 26-0901209 | 529 3RD AVE | September 4, 2026 6:05 pm | HARASSING COMMUNICATIONS | |
| 26-0901208 | 26-0901208 | 225 E ROBINS ST | September 4, 2026 6:00 pm | ROBBERY |
| 26-0901207 | 375 MONROE ST | September 4, 2026 5:52 pm | CIVIL STAND BY | |
| 26-0901206 | 1105 PRAIRIE ST | September 4, 2026 5:43 pm | ATTEMPT TO CONTACT | |
| 26-0901203 | 401 2ND ST | September 4, 2026 5:30 pm | ATTEMPT TO CONTACT | |
| 26-0901201 | 655 HIGHWAY 65 N | September 4, 2026 5:20 pm | CHECK ON THE WELFARE | |
| 26-0901199 | 28 LAUSE CV | September 4, 2026 5:18 pm | CIVIL MATTER | |
| 26-0901196 | 49 JUSTIN DR | September 4, 2026 5:16 pm | SHOTS FIRED | |
| 26-0901195 | 26-0901195 | 1155 SKYLINE DR | September 4, 2026 5:12 pm | DISTURBANCE |
| 26-0901193 | 2330 SANDERS ST | September 4, 2026 5:06 pm | DISTURBANCE | |
| 26-0901192 | 475 ROBINS ST | September 4, 2026 5:03 pm | DISTURBANCE | |
| 26-0901191 | 898 HIGHWAY 64 E | September 4, 2026 5:03 pm | RECKLESS DRIVER | |
| 26-0901190 | 498 HIGHWAY 65 N | September 4, 2026 5:03 pm | RECKLESS DRIVER | |
| 26-0901189 | 1 THUNDERBIRD LN | September 4, 2026 5:01 pm | ATTEMPT TO CONTACT | |
| 26-0901186 | 26-0901186 | 1305 DAVE WARD DR | September 4, 2026 4:48 pm | FOUND PROPERTY |
| 26-0901185 | 20 HIAWATHA LN | September 4, 2026 4:44 pm | TRESPASSING | |
| 26-0901183 | 1105 PRAIRIE ST | September 4, 2026 4:35 pm | CITIZEN ASSIST | |
| 26-0901182 | 1105 PRAIRIE ST | September 4, 2026 4:22 pm | CIVIL MATTER | |
| 26-0901179 | 2955 DAVE WARD DR | September 4, 2026 4:20 pm | ACCIDENT - PROPERTY DAMAGE | |
| 26-0901175 | 913 OAK ST | September 4, 2026 4:03 pm | TRESPASSING | |
| 26-0901174 | 2840 DAVE WARD DR | September 4, 2026 4:03 pm | ACCIDENT - PRIVATE PROPERTY | |
| 26-0901172 | 2330 SANDERS ST | September 4, 2026 3:55 pm | ATTEMPT TO CONTACT | |
| 26-0901170 | 499 DONAGHEY AVE | September 4, 2026 3:48 pm | ACCIDENT - PROPERTY DAMAGE | |
| 26-0901169 | 150 SKYLINE DR | September 4, 2026 3:39 pm | ATTEMPT TO CONTACT | |
| 26-0901168 | 161 SKUNK HOLLOW RD | September 4, 2026 3:37 pm | ASSAULT | |
| 26-0901167 | 825 6TH ST | September 4, 2026 3:33 pm | ATTEMPT TO CONTACT | |
| 26-0901166 | 1260 OLD MORRILTON HIGHWAY | September 4, 2026 3:33 pm | ACCIDENT - PROPERTY DAMAGE | |
| 26-0901165 | 1120 EAST GERMAN LN | September 4, 2026 3:21 pm | ARMED SUBJECT | |
| 26-0901164 | 1199 E OAK ST | September 4, 2026 3:18 pm | ACCIDENT - PROPERTY DAMAGE | |
| 26-0901163 | 399 SKYLINE DR | September 4, 2026 3:16 pm | ACCIDENT - PROPERTY DAMAGE | |
| 26-0901162 | 509 2ND AVE | September 4, 2026 3:12 pm | CHECK ON THE WELFARE | |
| 26-0901160 | 1749 OLD MORRILTON HIGHWAY | September 4, 2026 3:04 pm | ACCIDENT - PROPERTY DAMAGE | |
| 26-0901159 | 26-0901159 | 3900 DAVE WARD DR | September 4, 2026 3:01 pm | SHOPLIFTING |
| 26-0901158 | 606 HIGHWAY 285 N | September 4, 2026 3:01 pm | CHECKING VEHICLE | |
| 26-0901156 | 1405 S DONAGHEY AVE | September 4, 2026 2:58 pm | DOMESTIC DISTURBANCE | |
| 26-0901155 | 1139 HIGHWAY 64 E | September 4, 2026 2:57 pm | TRAFFIC PROBLEM-CONTROL | |
| 26-0901152 | 1899 E OAK ST | September 4, 2026 2:51 pm | STALLED VEHICLE | |
| 26-0901151 | 1601 HOGAN LN | September 4, 2026 2:40 pm | SUSPICIOUS PERSON | |
| 26-0901148 | 1090 SKYLINE DR | September 4, 2026 2:34 pm | ATTEMPT TO CONTACT | |
| 26-0901147 | 124 HIGHWAY 287 | September 4, 2026 2:31 pm | CHECKING VEHICLE | |
| 26-0901145 | 26-0901145 | 3900 DAVE WARD DR | September 4, 2026 2:23 pm | SHOPLIFTING |
| 26-0901141 | 545 SKYLINE DR | September 4, 2026 1:59 pm | PROPERTY DAMAGE | |
| 26-0901137 | 1105 PRAIRIE ST | September 4, 2026 1:53 pm | ATTEMPT TO CONTACT | |
| 26-0901136 | 6295 HIGHWAY 60 W | September 4, 2026 1:51 pm | TRAFFIC PROBLEM-CONTROL | |
| 26-0901134 | 800 DAVE WARD DR | September 4, 2026 1:38 pm | ACCIDENT - PROPERTY DAMAGE | |
| 26-0901132 | 27 NORMAN LN | September 4, 2026 1:23 pm | CHECK ON THE WELFARE | |
| 26-0901131 | 5 W CADRON RIDGE RD | September 4, 2026 1:22 pm | LOUD NOISE-MUSIC | |
| 26-0901129 | 1601 HOGAN LN | September 4, 2026 1:17 pm | CHECK ON THE WELFARE | |
| 26-0901128 | 606 HIGHWAY 285 N | September 4, 2026 1:13 pm | ABANDONED VEHICLE | |
| 26-0901125 | 26-0901125 | 1312 GARVIN AVE | September 4, 2026 1:09 pm | DOMESTIC DISTURBANCE |
| 26-0901124 | 1155 SKYLINE DR | September 4, 2026 1:07 pm | ACCIDENT - PRIVATE PROPERTY | |
| 26-0901123 | 599 S COUNTRY CLUB RD | September 4, 2026 1:01 pm | CITIZEN ASSIST | |
| 26-0901122 | 1575 TYLER ST | September 4, 2026 12:55 pm | DOMESTIC DISTURBANCE | |
| 26-0901120 | 26-0901120 | 1060 S AMITY RD | September 4, 2026 12:44 pm | HARASSMENT |
| 26-0901117 | 2275 MOIX BLVD | September 4, 2026 12:34 pm | SUSPICIOUS VEHICLE | |
| 26-0901116 | 110 HOGAN LN | September 4, 2026 12:26 pm | ACCIDENT - PROPERTY DAMAGE | |
| 26-0901115 | 3501 COLLEGE AVE | September 4, 2026 12:26 pm | ATTEMPT TO CONTACT | |
| 26-0901113 | 1105 PRAIRIE ST | September 4, 2026 12:25 pm | SUPPLEMENT REPORT CALL | |
| 26-0901110 | 1199 E DAVE WARD DR | September 4, 2026 12:18 pm | CHECKING VEHICLE | |
| 26-0901109 | 300 BRUCE ST | September 4, 2026 12:16 pm | ATTEMPT TO CONTACT | |
| 26-0901107 | 205 GREEN VALLEY DR | September 4, 2026 12:13 pm | CIVIL MATTER | |
| 26-0901103 | 26-0901103 | 955 S GERMAN LN | September 4, 2026 11:46 am | THEFT OF PROPERTY |
| 26-0901102 | 102 PRESLEY DR | September 4, 2026 11:44 am | ATTEMPT TO CONTACT | |
| 26-0901099 | 1900 HOGAN LN | September 4, 2026 11:34 am | REPOSSESSION | |
| 26-0901098 | 26-0901098 | 2220 PRINCE ST | September 4, 2026 11:33 am | THEFT OF PROPERTY |
| 26-0901096 | 3430 IRBY DR | September 4, 2026 11:28 am | ATTEMPT TO CONTACT | |
| 26-0901095 | 1199 E DAVE WARD DR | September 4, 2026 11:27 am | ACCIDENT - PROPERTY DAMAGE | |
| 26-0901094 | 950 CRAIN DR | September 4, 2026 11:27 am | ACCIDENT - PERSONAL INJURY | |
| 26-0901093 | 618 OAK ST | September 4, 2026 11:25 am | INTOXICATED DRIVER | |
| 26-0901092 | 3501 COLLEGE AVE | September 4, 2026 11:24 am | DISTURBANCE | |
| 26-0901091 | 175 E OAK ST | September 4, 2026 11:22 am | CHECK ON THE WELFARE | |
| 26-0901090 | 1301 E DAVE WARD DR | September 4, 2026 11:21 am | ACCIDENT - PRIVATE PROPERTY | |
| 26-0901089 | 26-0901089 | 2695 DAVE WARD DR | September 4, 2026 11:15 am | TRESPASSING |
| 26-0901088 | 1515 GREENWOOD CIR | September 4, 2026 11:14 am | SUSPICIOUS PERSON | |
| 26-0901087 | 26-0901087 | 2220 PRINCE ST | September 4, 2026 11:13 am | FRAUD |
| 26-0901086 | 102 PRESLEY DR | September 4, 2026 11:11 am | CIVIL STAND BY | |
| 26-0901085 | 1305 DAVE WARD DR | September 4, 2026 11:08 am | ACCIDENT - PROPERTY DAMAGE | |
| 26-0901084 | 855 S SALEM RD | September 4, 2026 11:08 am | LOUD NOISE-MUSIC | |
| 26-0901081 | 207 WILLOW ST | September 4, 2026 10:59 am | SUPPLEMENT REPORT CALL | |
| 26-0901077 | 40 MACE CIR | September 4, 2026 10:52 am | SUPPLEMENT REPORT CALL | |
| 26-0901076 | 1105 PRAIRIE ST | September 4, 2026 10:49 am | ATTEMPT TO CONTACT | |
| 26-0901075 | 26-0901075 | 1040 S AMITY RD | September 4, 2026 10:48 am | DISTURBANCE |
| 26-0901073 | 125 INTERSTATE 40 | September 4, 2026 10:40 am | STALLED VEHICLE | |
| 26-0901072 | 124 I40EB | September 4, 2026 10:37 am | STALLED VEHICLE | |
| 26-0901069 | 26-0901069 | 2695 DAVE WARD DR | September 4, 2026 10:23 am | THEFT OF PROPERTY |
| 26-0901068 | 26-0901068 | 655 ELSINGER BLVD | September 4, 2026 10:16 am | SHOPLIFTING |
| 26-0901067 | 24 W WICKER ST | September 4, 2026 10:14 am | SERVING PAPERS | |
| 26-0901066 | 1105 PRAIRIE ST | September 4, 2026 10:14 am | HARASSING COMMUNICATIONS | |
| 26-0901063 | 700 SKYLINE DR | September 4, 2026 10:09 am | ACCIDENT - PROPERTY DAMAGE | |
| 26-0901061 | 26-0901061 | 1160 HOGAN LN | September 4, 2026 10:03 am | DISTURBANCE |
| 26-0901060 | 26-0901060 | 2220 PRINCE ST | September 4, 2026 10:02 am | FRAUD |
| 26-0901057 | 26-0901057 | 2220 PRINCE ST | September 4, 2026 9:49 am | THEFT OF PROPERTY |
| 26-0901056 | 240 HIGHWAY 64 E | September 4, 2026 9:46 am | SUPPLEMENT REPORT CALL | |
| 26-0901053 | 26-0901053 | 1105 PRAIRIE ST | September 4, 2026 9:39 am | MISDEMEANOR WARRANT SERVICE |
| 26-0901050 | 2695 DAVE WARD DR | September 4, 2026 9:27 am | ACCIDENT - PRIVATE PROPERTY | |
| 26-0901049 | 72 BARHAM LOOP | September 4, 2026 9:23 am | THEFT OF VEHICLE | |
| 26-0901047 | 4 CYPRESS CREEK RD | September 4, 2026 9:16 am | ATTEMPT TO CONTACT | |
| 26-0901045 | 646 HIGHWAY 65 N | September 4, 2026 9:03 am | ILLEGAL DUMPING | |
| 26-0901043 | 153 BLAIR RD | September 4, 2026 8:50 am | LOST PROPERTY | |
| 26-0901041 | 4645 VALIANT DR | September 4, 2026 8:48 am | SUSPICIOUS ACTIVITY | |
| 26-0901039 | 486 MIDDLE RD | September 4, 2026 8:37 am | HARASSING COMMUNICATIONS | |
| 26-0901038 | 26-0901038 | 1435 E OAK ST | September 4, 2026 8:15 am | CIVIL MATTER |
| 26-0901037 | 299 LOCUST AVE | September 4, 2026 8:09 am | ACCIDENT - PROPERTY DAMAGE | |
| 26-0901036 | 26-0901036 | 475 ROBINS ST | September 4, 2026 8:07 am | FRAUD |
| 26-0901034 | 699 UNITED DR | September 4, 2026 8:04 am | CHECK ON THE WELFARE | |
| 26-0901032 | 4 ANTELOPE TRL | September 4, 2026 7:56 am | BARKING DOG COMPLAINT | |
| 26-0901030 | 1620 MIDDLE RD | September 4, 2026 7:48 am | SUPPLEMENT REPORT CALL | |
| 26-0901029 | 26-0901029 | 2010 RICH SMITH LN | September 4, 2026 7:47 am | BREAKING OR ENTERING |
| 26-0901025 | 599 CLINTON RD | September 4, 2026 7:29 am | RECKLESS DRIVER | |
| 26-0901023 | 475 ROBINS ST | September 4, 2026 7:13 am | CITIZEN ASSIST | |
| 26-0901021 | 1405 S DONAGHEY AVE | September 4, 2026 6:54 am | CHECK ON THE WELFARE | |
| 26-0901018 | 3255 PRINCE ST | September 4, 2026 6:36 am | TRESPASSING | |
| 26-0901016 | 599 E DAVE WARD DR | September 4, 2026 6:26 am | ACCIDENT - PROPERTY DAMAGE | |
| 26-0901013 | 500 S GERMAN LN | September 4, 2026 5:58 am | ATTEMPT TO CONTACT | |
| 26-0901011 | 2200 MEADOWLAKE RD | September 4, 2026 5:48 am | ACCIDENT - PRIVATE PROPERTY | |
| 26-0901010 | 26-0901010 | 401 2ND ST | September 4, 2026 5:22 am | BREAKING OR ENTERING |
| 26-0901007 | 41 FULMER DR | September 4, 2026 4:45 am | PROWLER | |
| 26-0901004 | 2010 RICH SMITH LN | September 4, 2026 4:00 am | DISTURBANCE | |
| 26-0900997 | 2050 DAVE WARD DR | September 4, 2026 3:10 am | TRESPASSING | |
| 26-0900995 | 1099 DONAGHEY AVE | September 4, 2026 2:55 am | ATTEMPT TO CONTACT | |
| 26-0900989 | 2890 DAVE WARD DR | September 4, 2026 2:00 am | LOUD NOISE-MUSIC | |
| 26-0900986 | 197 HIGHWAY 107 S | September 4, 2026 1:42 am | PURSUIT | |
| 26-0900983 | 409 S CENTER ST | September 4, 2026 12:44 am | CIVIL MATTER | |
| 26-0900982 | 3100 PEBBLE BEACH DR | September 4, 2026 12:12 am | DISTURBANCE | |
| 26-0900981 | 12 ROSS DR | September 4, 2026 12:01 am | REPOSSESSION | |
| 26-0900980 | 1601 HOGAN LN | September 3, 2026 11:57 pm | FRAUD | |
| 26-0900978 | 26-0900978 | 414 HARKRIDER ST | September 3, 2026 11:54 pm | ACCIDENT - PROPERTY DAMAGE |
| 26-0900977 | 409 S CENTER ST | September 3, 2026 11:42 pm | CIVIL MATTER | |
| 26-0900973 | 999 TURNER TRL | September 3, 2026 11:20 pm | SUSPICIOUS VEHICLE | |
| 26-0900971 | 129 I40WB | September 3, 2026 11:00 pm | AGENCY ASSIST | |
| 26-0900970 | 207 WILLOW ST | September 3, 2026 10:53 pm | CHECK ON THE WELFARE | |
| 26-0900968 | 549 FRONT ST | September 3, 2026 10:49 pm | CHECK ON THE WELFARE | |
| 26-0900960 | 26-0900960 | 104 CLUB LN | September 3, 2026 10:31 pm | BATTERY REPORT |
| 26-0900959 | 12 VALLEY VIEW LN | September 3, 2026 10:28 pm | ATTEMPT TO CONTACT | |
| 26-0900952 | 26 JOHNSON CIR | September 3, 2026 10:00 pm | AGENCY ASSIST | |
| 26-0900950 | 26-0900950 | 815 E OAK ST | September 3, 2026 9:51 pm | CHECKING PERSON |
| 26-0900949 | 999 EAST GERMAN LN | September 3, 2026 9:49 pm | CHECK ON THE WELFARE | |
| 26-0900948 | 26 JOHNSON CIR | September 3, 2026 9:47 pm | AGENCY ASSIST | |
| 26-0900947 | 1204 SKYLINE DR | September 3, 2026 9:43 pm | ACCIDENT - PERSONAL INJURY | |
| 26-0900944 | 499 S SALEM RD | September 3, 2026 9:35 pm | CHECKING PERSON | |
| 26-0900941 | 1620 MIDDLE RD | September 3, 2026 9:32 pm | ATTEMPT TO CONTACT | |
| 26-0900934 | 132 I40WB | September 3, 2026 9:05 pm | STALLED VEHICLE | |
| 26-0900933 | 999 EAST GERMAN LN | September 3, 2026 9:03 pm | STALLED VEHICLE | |
| 26-0900930 | 1099 HOGAN LN | September 3, 2026 8:59 pm | RECKLESS DRIVER | |
| 26-0900928 | 191 HIGHWAY 286 E | September 3, 2026 8:51 pm | CHECKING PERSON | |
| 26-0900925 | 127 I40WB | September 3, 2026 8:39 pm | STALLED VEHICLE | |
| 26-0900923 | 500 S GERMAN LN | September 3, 2026 8:37 pm | FELONY WARRANT SERVICE | |
| 26-0900915 | 1 S BROADVIEW | September 3, 2026 8:09 pm | ACCIDENT - PROPERTY DAMAGE | |
| 26-0900914 | 26-0900914 | 1099 DONAGHEY AVE | September 3, 2026 8:07 pm | DOMESTIC DISTURBANCE |
| 26-0900911 | 486 MIDDLE RD | September 3, 2026 7:58 pm | HARASSING COMMUNICATIONS | |
| 26-0900910 | 3425 MALVERN HILL DR | September 3, 2026 7:58 pm | LOUD NOISE-MUSIC | |
| 26-0900905 | 92 W CEDAR HILL RD | September 3, 2026 7:45 pm | 911 HANGUP CALL | |
| 26-0900904 | 2430 SANDERS ST | September 3, 2026 7:43 pm | STALLED VEHICLE | |
| 26-0900902 | 322 DAVIS ST | September 3, 2026 7:39 pm | ATTEMPT TO CONTACT | |
| 26-0900900 | 126 HARKRIDER ST | September 3, 2026 7:29 pm | HARASSING COMMUNICATIONS | |
| 26-0900897 | 550 HARKRIDER ST | September 3, 2026 7:24 pm | ACCIDENT - PROPERTY DAMAGE | |
| 26-0900896 | 30 WHITE OAK RD | September 3, 2026 7:17 pm | SUPPLEMENT REPORT CALL | |
| 26-0900893 | 2710 PRINCE ST | September 3, 2026 7:03 pm | CIVIL MATTER | |
| 26-0900891 | 475 ROBINS ST | September 3, 2026 7:01 pm | AGENCY ASSIST | |
| 26-0900885 | 1320 CROSSPOINT RD | September 3, 2026 6:44 pm | PARKING VIOLATION | |
| 26-0900884 | 2805 PRINCE ST | September 3, 2026 6:39 pm | CHECK ON THE WELFARE | |
| 26-0900882 | 1 CHARLES ST | September 3, 2026 6:30 pm | RECKLESS DRIVER | |
| 26-0900880 | 26-0900880 | 1815 PRINCE ST | September 3, 2026 6:25 pm | TERRORISTIC THREATENING |
| 26-0900878 | 537 HIGHWAY 365 | September 3, 2026 6:12 pm | STALLED VEHICLE | |
| 26-0900877 | 13 SCHOOL DR | September 3, 2026 6:10 pm | MISSING PERSON | |
| 26-0900874 | 26-0900874 | 3800 COLLEGE AVE | September 3, 2026 5:57 pm | THEFT OF PROPERTY |
| 26-0900870 | 618 HIGHWAY 64 E | September 3, 2026 5:49 pm | ACCIDENT - PRIVATE PROPERTY | |
| 26-0900867 | 530 S DONAGHEY AVE | September 3, 2026 5:44 pm | HARASSING COMMUNICATIONS | |
| 26-0900864 | 1 FORTSON RD | September 3, 2026 5:39 pm | ACCIDENT - PROPERTY DAMAGE | |
| 26-0900861 | 26-0900861 | 1405 S DONAGHEY AVE | September 3, 2026 5:32 pm | MISDEMEANOR WARRANT SERVICE |
| 26-0900860 | 23 ROLLING CREEK CIR | September 3, 2026 5:29 pm | CHECK ON THE WELFARE | |
| 26-0900859 | 41 EAGLEBROOK DR | September 3, 2026 5:28 pm | RUNAWAY | |
| 26-0900858 | 2603 DAVE WARD DR | September 3, 2026 5:24 pm | NEGLECT | |
| 26-0900857 | 350 SALEM RD | September 3, 2026 5:23 pm | MISDEMEANOR WARRANT SERVICE | |
| 26-0900854 | 26-0900854 | 518 DONAGHEY AVE | September 3, 2026 5:13 pm | DOMESTIC DISTURBANCE |
| 26-0900850 | 125 I40WB | September 3, 2026 5:05 pm | TRAFFIC PROBLEM-CONTROL | |
| 26-0900849 | 63 S BROADVIEW | September 3, 2026 5:04 pm | ACCIDENT - PROPERTY DAMAGE | |
| 26-0900848 | 1 MIDDLE RD | September 3, 2026 5:02 pm | ACCIDENT - PROPERTY DAMAGE | |
| 26-0900847 | 26-0900847 | 530 S DONAGHEY AVE | September 3, 2026 5:00 pm | TERRORISTIC THREATENING |
| 26-0900846 | 2449 DAVE WARD DR | September 3, 2026 4:52 pm | STALLED VEHICLE | |
| 26-0900845 | 240 HIGHWAY 64 E | September 3, 2026 4:49 pm | ACCIDENT - PROPERTY DAMAGE | |
| 26-0900844 | 805 DONAGHEY AVE | September 3, 2026 4:49 pm | TERRORISTIC THREATENING | |
| 26-0900843 | 26-0900843 | 419 E OAK ST | September 3, 2026 4:45 pm | ATTEMPT TO CONTACT |
| 26-0900842 | 98 HIGHWAY 36 | September 3, 2026 4:33 pm | ACCIDENT - PROPERTY DAMAGE | |
| 26-0900840 | 2100 NATURE TRL | September 3, 2026 4:18 pm | ACCIDENT - PROPERTY DAMAGE | |
| 26-0900839 | 2460 SAPPHIRE DR | September 3, 2026 4:07 pm | CHECK ON THE WELFARE | |
| 26-0900836 | 425 E DAVE WARD DR | September 3, 2026 3:49 pm | ACCIDENT - PROPERTY DAMAGE | |
| 26-0900835 | 26-0900835 | 350 SALEM RD | September 3, 2026 3:48 pm | TERRORISTIC THREATENING |
| 26-0900834 | 2220 PRINCE ST | September 3, 2026 3:48 pm | ACCIDENT - PRIVATE PROPERTY | |
| 26-0900833 | 814 E OAK ST | September 3, 2026 3:44 pm | TRESPASSING | |
| 26-0900831 | 299 CONWAY BLVD | September 3, 2026 3:40 pm | ACCIDENT - PROPERTY DAMAGE | |
| 26-0900830 | 384 BANISTER RD | September 3, 2026 3:40 pm | UNAUTHORIZED USE OF MOTOR VEHICLE | |
| 26-0900829 | 26-0900829 | 1620 WESTLAKE DR | September 3, 2026 3:36 pm | BREAKING OR ENTERING |
| 26-0900828 | 1920 E OAK ST | September 3, 2026 3:32 pm | RECKLESS DRIVER | |
| 26-0900827 | 1175 MORNINGSIDE DR | September 3, 2026 3:29 pm | ACCIDENT - PRIVATE PROPERTY | |
| 26-0900826 | 348 STURGIS RD | September 3, 2026 3:27 pm | THEFT OF VEHICLE | |
| 26-0900822 | 207 GRAND TRUNK RD | September 3, 2026 3:15 pm | CHECK ON THE WELFARE | |
| 26-0900815 | 2840 DAVE WARD DR | September 3, 2026 3:02 pm | DISTURBANCE | |
| 26-0900813 | 220 S DAVIS ST | September 3, 2026 2:48 pm | SUSPICIOUS VEHICLE | |
| 26-0900812 | 1105 PRAIRIE ST | September 3, 2026 2:48 pm | ATTEMPT TO CONTACT | |
| 26-0900811 | 26-0900811 | 1501 COLLEGE AVE | September 3, 2026 2:44 pm | LOST PROPERTY |
| 26-0900810 | 1199 E DAVE WARD DR | September 3, 2026 2:43 pm | ATTEMPT TO CONTACT | |
| 26-0900809 | 1930 RICH SMITH LN | September 3, 2026 2:41 pm | HARASSING COMMUNICATIONS | |
| 26-0900804 | 829 S DONAGHEY AVE | September 3, 2026 2:33 pm | ACCIDENT - PROPERTY DAMAGE | |
| 26-0900803 | 101 OAK ST | September 3, 2026 2:32 pm | CHECK ON THE WELFARE | |
| 26-0900802 | 177 PLANTATION DR | September 3, 2026 2:28 pm | CRIMINAL MISCHIEF | |
| 26-0900801 | 2 COLD SPRING TRL | September 3, 2026 2:27 pm | ATTEMPT TO CONTACT | |
| 26-0900800 | 1400 HARKRIDER ST | September 3, 2026 2:16 pm | FRAUD | |
| 26-0900799 | 26-0900799 | 500 ELSINGER BLVD | September 3, 2026 2:15 pm | SHOPLIFTING |
| 26-0900797 | 849 SKYLINE DR | September 3, 2026 2:09 pm | CHECKING PERSON | |
| 26-0900796 | 1199 E DAVE WARD DR | September 3, 2026 1:55 pm | ACCIDENT - PROPERTY DAMAGE | |
| 26-0900794 | 24 BLAIR RD | September 3, 2026 1:48 pm | ATTEMPT TO CONTACT | |
| 26-0900788 | 2465 SANDERS ST | September 3, 2026 1:39 pm | ACCIDENT - PROPERTY DAMAGE | |
| 26-0900779 | 655 DAVE WARD DR | September 3, 2026 1:19 pm | ACCIDENT - PROPERTY DAMAGE | |
| 26-0900778 | 1105 PRAIRIE ST | September 3, 2026 1:12 pm | FOUND PROPERTY | |
| 26-0900777 | 1301 CLIFTON ST | September 3, 2026 1:08 pm | DISTURBANCE | |
| 26-0900772 | 855 E OAK ST | September 3, 2026 12:36 pm | TRESPASSING | |
| 26-0900771 | 1260 S AMITY RD | September 3, 2026 12:19 pm | CITIZEN ASSIST | |
| 26-0900770 | 1155 SKYLINE DR | September 3, 2026 12:14 pm | CHECK ON THE WELFARE | |
| 26-0900769 | 11 GRASSY LAKE RD | September 3, 2026 12:13 pm | ATTEMPT TO CONTACT | |
| 26-0900768 | 1 ROWLETT LN | September 3, 2026 12:09 pm | ATTEMPT TO CONTACT | |
| 26-0900761 | 30 WHITE OAK RD | September 3, 2026 11:27 am | ATTEMPT TO CONTACT | |
| 26-0900759 | 801 LOCUST AVE | September 3, 2026 11:20 am | NO CONTACT ORDER VIOLATION | |
| 26-0900758 | 24 BLAIR RD | September 3, 2026 11:20 am | ATTEMPT TO CONTACT | |
| 26-0900756 | 26-0900756 | 1301 CLIFTON ST | September 3, 2026 11:13 am | BURGLARY |
| 26-0900754 | 26-0900754 | 1611 E OAK ST | September 3, 2026 11:07 am | SUPPLEMENT REPORT CALL |
| 26-0900751 | 1 ELLIOTT RD | September 3, 2026 10:47 am | CHECK ON THE WELFARE | |
| 26-0900750 | 1703 BRYANT CIR | September 3, 2026 10:46 am | REPOSSESSION | |
| 26-0900749 | 8 DEERWOOD DR | September 3, 2026 10:42 am | ATTEMPT TO CONTACT | |
| 26-0900747 | 2145 RAINTREE DR | September 3, 2026 10:32 am | SUPPLEMENT REPORT CALL | |
| 26-0900745 | 45 FULLER RD | September 3, 2026 10:25 am | FRAUD | |
| 26-0900744 | 3 BURR FLAT RD | September 3, 2026 10:23 am | CHECK ON THE WELFARE | |
| 26-0900743 | 9 RIDGE LN | September 3, 2026 10:22 am | CHECK ON THE WELFARE | |
| 26-0900742 | 11 KELLEE RD | September 3, 2026 10:20 am | CHECK ON THE WELFARE | |
| 26-0900741 | 26-0900741 | 101 OAK ST | September 3, 2026 10:19 am | LOST PROPERTY |
| 26-0900740 | 835 S DONAGHEY AVE | September 3, 2026 10:17 am | ATTEMPT TO CONTACT | |
| 26-0900739 | 3225 PEBBLE BEACH DR | September 3, 2026 10:16 am | ATTEMPT TO CONTACT | |
| 26-0900738 | 26-0900738 | 2603 DAVE WARD DR | September 3, 2026 10:14 am | BATTERY REPORT |
| 26-0900737 | 14 PEBBLE BROOK DR | September 3, 2026 10:11 am | SUPPLEMENT REPORT CALL | |
| 26-0900735 | 955 S GERMAN LN | September 3, 2026 10:04 am | HARASSING COMMUNICATIONS | |
| 26-0900730 | 26-0900730 | 2695 DAVE WARD DR | September 3, 2026 9:33 am | ABUSE |
| 26-0900729 | 955 S GERMAN LN | September 3, 2026 9:29 am | SUSPICIOUS ACTIVITY | |
| 26-0900727 | 100 BILL HEGEMAN BLVD | September 3, 2026 9:23 am | 911 HANGUP CALL | |
| 26-0900725 | 1620 MIDDLE RD | September 3, 2026 9:17 am | SUPPLEMENT REPORT CALL | |
| 26-0900723 | 26-0900723 | 1 ROWLETT LN | September 3, 2026 9:14 am | HARASSING COMMUNICATIONS |
| 26-0900720 | 1404 CALDWELL ST | September 3, 2026 8:59 am | TRESPASSING | |
| 26-0900719 | 330 W CADRON RIDGE RD | September 3, 2026 8:59 am | RECKLESS DRIVER | |
| 26-0900718 | 107 S BARIDON ST | September 3, 2026 8:58 am | CIVIL STAND BY | |
| 26-0900717 | 26-0900717 | 1622 WESTLAKE DR | September 3, 2026 8:57 am | BREAKING OR ENTERING |
| 26-0900716 | 815 E OAK ST | September 3, 2026 8:52 am | CHECK ON THE WELFARE | |
| 26-0900710 | 489 BERYL RD | September 3, 2026 8:36 am | TRESPASSING | |
| 26-0900709 | 26-0900709 | 2220 RAINTREE DR | September 3, 2026 8:33 am | LOST CHILD |
| 26-0900708 | 955 S GERMAN LN | September 3, 2026 8:32 am | THEFT OF PROPERTY | |
| 26-0900706 | 1065 HIGHWAY 36 | September 3, 2026 8:20 am | CHECK ON THE WELFARE | |
| 26-0900705 | 355 STURGIS RD | September 3, 2026 8:19 am | CITIZEN ASSIST | |
| 26-0900702 | 15 LESTER RD | September 3, 2026 8:11 am | ACCIDENT - PERSONAL INJURY | |
| 26-0900700 | 26-0900700 | 1620 MIDDLE RD | September 3, 2026 8:09 am | BREAKING OR ENTERING |
| 26-0900699 | 26-0900699 | 5 THOUSAND OAKS CIR | September 3, 2026 8:06 am | HARASSING COMMUNICATIONS |
| 26-0900698 | 18 LONGTREE DR | September 3, 2026 8:05 am | REPOSSESSION | |
| 26-0900697 | 125 I40WB | September 3, 2026 8:03 am | RECKLESS DRIVER | |
| 26-0900695 | 2300 PRINCE ST | September 3, 2026 7:51 am | UNKNOWN TROUBLE | |
| 26-0900692 | 100 HIGHWAY 286 E | September 3, 2026 7:41 am | ACCIDENT - PROPERTY DAMAGE | |
| 26-0900690 | 3900 TYLER ST | September 3, 2026 7:29 am | SUSPICIOUS VEHICLE | |
| 26-0900688 | 677 HIGHWAY 65 N | September 3, 2026 7:18 am | ACCIDENT - PROPERTY DAMAGE | |
| 26-0900687 | 1755 S HARKRIDER DR | September 3, 2026 7:16 am | ACCIDENT - PRIVATE PROPERTY | |
| 26-0900686 | 1899 E OAK ST | September 3, 2026 7:15 am | RECKLESS DRIVER | |
| 26-0900682 | 26-0900682 | 2899 DAVE WARD DR | September 3, 2026 6:41 am | THEFT OF PROPERTY |
| 26-0900679 | 3900 TYLER ST | September 3, 2026 6:34 am | STALLED VEHICLE | |
| 26-0900678 | 26 KINLEY DR | September 3, 2026 6:22 am | ROAD RAGE | |
| 26-0900677 | 36 DALLAS LN | September 3, 2026 6:21 am | DOMESTIC DISTURBANCE | |
| 26-0900676 | 152 MARCUS HILL RD | September 3, 2026 6:16 am | SUSPICIOUS PERSON | |
| 26-0900670 | 26-0900670 | 1616 WESTLAKE DR | September 3, 2026 5:07 am | BREAKING OR ENTERING |
| 26-0900668 | 22 FULMER DR | September 3, 2026 4:44 am | PROWLER | |
| 26-0900662 | 500 S GERMAN LN | September 3, 2026 3:07 am | FELONY WARRANT SERVICE | |
| 26-0900661 | 845 CENTER ST | September 3, 2026 2:58 am | REPOSSESSION | |
| 26-0900660 | 532 HIGHWAY 65 N | September 3, 2026 2:28 am | CHECKING VEHICLE | |
| 26-0900656 | 2815 PEBBLE BEACH DR | September 3, 2026 1:36 am | CHECK ON THE WELFARE | |
| 26-0900655 | 2820 PRINCE ST | September 3, 2026 1:35 am | CHECKING VEHICLE | |
| 26-0900653 | 300 HOGAN LN | September 3, 2026 1:25 am | CHECKING VEHICLE | |
| 26-0900649 | 250 STURGIS RD | September 3, 2026 1:04 am | CHECKING BUILDING | |
| 26-0900647 | 2000 KEATHLEY DR | September 3, 2026 12:50 am | REPOSSESSION | |
| 26-0900641 | 198 HIGHWAY 286 E | September 3, 2026 12:20 am | CHECKING BUILDING | |
| 26-0900639 | 3700 JEANNA DR | September 3, 2026 12:11 am | CIVIL STAND BY | |
| 26-0900638 | 399 OAK ST | September 3, 2026 12:09 am | CHECK ON THE WELFARE | |
| 26-0900629 | 1000 E SIEBENMORGEN RD | September 2, 2026 11:04 pm | CHECK ON THE WELFARE | |
| 26-0900627 | 60 JUSTIN DR | September 2, 2026 10:50 pm | ASSIST FIRE | |
| 26-0900622 | 32 ALLI PAIGE DR | September 2, 2026 10:38 pm | REPOSSESSION | |
| 26-0900619 | 530 S DONAGHEY AVE | September 2, 2026 10:15 pm | INTOXICATED PERSON | |
| 26-0900616 | 1601 HOGAN LN | September 2, 2026 10:10 pm | SUPPLEMENT REPORT CALL | |
| 26-0900607 | 999 S SALEM RD | September 2, 2026 9:51 pm | UNKNOWN TROUBLE | |
| 26-0900606 | 83 SHOEMAKER CIR | September 2, 2026 9:50 pm | CITIZEN ASSIST | |
| 26-0900602 | 93 CARROLL RD | September 2, 2026 9:36 pm | PROWLER | |
| 26-0900590 | 187 SKUNK HOLLOW RD | September 2, 2026 9:01 pm | CHECK ON THE WELFARE | |
| 26-0900587 | 1095 EDINBURGH DR | September 2, 2026 8:55 pm | PARKING VIOLATION | |
| 26-0900582 | 581 HIGHWAY 25 | September 2, 2026 8:44 pm | CHECKING VEHICLE | |
| 26-0900572 | 1601 HOGAN LN | September 2, 2026 8:06 pm | HARASSMENT | |
| 26-0900570 | 1078 MAIN ST | September 2, 2026 8:04 pm | ACCIDENT - PROPERTY DAMAGE | |
| 26-0900562 | 201 SKYLINE DR | September 2, 2026 7:27 pm | OPEN DOOR/WINDOW/FENCE | |
| 26-0900556 | 159 LOWER RIDGE RD | September 2, 2026 6:52 pm | CHECKING VEHICLE | |
| 26-0900555 | 109 HIGHWAY 89 S | September 2, 2026 6:50 pm | TERRORISTIC THREATENING | |
| 26-0900551 | 2570 WINCHESTER DR | September 2, 2026 6:31 pm | ATTEMPT TO CONTACT | |
| 26-0900548 | 26-0900548 | 1150 S HARKRIDER DR | September 2, 2026 6:28 pm | TERRORISTIC THREATENING |
| 26-0900545 | 790 ELSINGER BLVD | September 2, 2026 6:26 pm | CHECK ON THE WELFARE | |
| 26-0900543 | 1105 PRAIRIE ST | September 2, 2026 6:18 pm | ATTEMPT TO CONTACT | |
| 26-0900540 | 140 STANLEY RD | September 2, 2026 6:06 pm | ATTEMPT TO CONTACT | |
| 26-0900536 | 2899 SALEM RD | September 2, 2026 5:55 pm | ACCIDENT - PERSONAL INJURY | |
| 26-0900534 | 20 FRITTS WAY | September 2, 2026 5:44 pm | AGENCY ASSIST | |
| 26-0900532 | 26-0900532 | 1620 MIDDLE RD | September 2, 2026 5:25 pm | DOMESTIC DISTURBANCE |
| 26-0900530 | 24 SUMMER WIND RD | September 2, 2026 5:20 pm | HARASSMENT | |
| 26-0900529 | 150 SKYLINE DR | September 2, 2026 5:19 pm | ATTEMPT TO CONTACT | |
| 26-0900528 | 20 BRONNIE LN | September 2, 2026 5:13 pm | TERRORISTIC THREATENING | |
| 26-0900525 | 300 E DAVE WARD DR | September 2, 2026 5:08 pm | ACCIDENT - PERSONAL INJURY | |
| 26-0900522 | 1907 HOGAN LN | September 2, 2026 4:58 pm | CHECK ON THE WELFARE | |
| 26-0900521 | 515 HARKRIDER ST | September 2, 2026 4:58 pm | ACCIDENT - PROPERTY DAMAGE | |
| 26-0900519 | 153 BLAIR RD | September 2, 2026 4:54 pm | CHECK ON THE WELFARE | |
| 26-0900513 | 2270 MEADOWLAKE RD | September 2, 2026 4:37 pm | ACCIDENT - PRIVATE PROPERTY | |
| 26-0900512 | 1014 W OAK ST | September 2, 2026 4:36 pm | SUPPLEMENT REPORT CALL | |
| 26-0900510 | 860 ELSINGER BLVD | September 2, 2026 4:33 pm | ACCIDENT - PROPERTY DAMAGE | |
| 26-0900505 | 5 THUNDERBIRD LN | September 2, 2026 4:07 pm | RECKLESS DRIVER | |
| 26-0900504 | 127 BALLARD RD | September 2, 2026 3:57 pm | THEFT OF PROPERTY | |
| 26-0900503 | 26-0900503 | 2085 KEATHLEY DR | September 2, 2026 3:52 pm | TERRORISTIC THREATENING |
| 26-0900502 | 150 SKYLINE DR | September 2, 2026 3:51 pm | HARASSMENT | |
| 26-0900500 | 159 BAILEY RD | September 2, 2026 3:44 pm | ABUSE | |
| 26-0900499 | 225 OAK ST | September 2, 2026 3:43 pm | TRESPASSING | |
| 26-0900498 | 2740 DAVE WARD DR | September 2, 2026 3:40 pm | DISTURBANCE | |
| 26-0900497 | 235 FARRIS RD | September 2, 2026 3:39 pm | SUPPLEMENT REPORT CALL | |
| 26-0900490 | 2 COLD SPRING TRL | September 2, 2026 3:17 pm | CIVIL STAND BY | |
| 26-0900489 | 123 QUALLS RD | September 2, 2026 3:15 pm | SUSPICIOUS ACTIVITY | |
| 26-0900484 | 317 OAK ST | September 2, 2026 2:59 pm | ACCIDENT - HIT AND RUN | |
| 26-0900483 | 235 FARRIS RD | September 2, 2026 2:57 pm | ACCIDENT - HIT AND RUN | |
| 26-0900482 | 26-0900482 | 600 S GERMAN LN | September 2, 2026 2:52 pm | MISDEMEANOR WARRANT SERVICE |
| 26-0900481 | 2812 TIMBERPEG CT | September 2, 2026 2:52 pm | TRAFFIC PROBLEM-CONTROL | |
| 26-0900480 | 26-0900480 | 500 S GERMAN LN | September 2, 2026 2:45 pm | MISDEMEANOR WARRANT SERVICE |
| 26-0900478 | 1900 TYLER ST | September 2, 2026 2:42 pm | ATTEMPT TO CONTACT | |
| 26-0900477 | 322 HIGHWAY 286 E | September 2, 2026 2:21 pm | CHECKING VEHICLE | |
| 26-0900476 | 1105 PRAIRIE ST | September 2, 2026 2:13 pm | ATTEMPT TO CONTACT | |
| 26-0900474 | 4545 VALIANT DR | September 2, 2026 2:09 pm | SUSPICIOUS ACTIVITY | |
| 26-0900473 | 26-0900473 | 1416 DONAGHEY AVE | September 2, 2026 2:09 pm | HARASSMENT |
| 26-0900469 | 183 PINE VALLEY DR | September 2, 2026 1:53 pm | ATTEMPT TO CONTACT | |
| 26-0900468 | 1200 COVINGTON WAY | September 2, 2026 1:48 pm | SUSPICIOUS ACTIVITY | |
| 26-0900466 | 1105 PRAIRIE ST | September 2, 2026 1:39 pm | ATTEMPT TO CONTACT | |
| 26-0900465 | 38 GARLAND SPRINGS RD | September 2, 2026 1:35 pm | DISORDERLY CONDUCT | |
| 26-0900463 | 26-0900463 | 525 S GERMAN LN | September 2, 2026 1:23 pm | MISDEMEANOR WARRANT SERVICE |
| 26-0900460 | 124 DAUGHERTY HILL RD | September 2, 2026 1:17 pm | LOST CHILD | |
| 26-0900457 | 153 BLAIR RD | September 2, 2026 12:58 pm | DOMESTIC DISTURBANCE | |
| 26-0900456 | 801 LOCUST AVE | September 2, 2026 12:58 pm | TERRORISTIC THREATENING | |
| 26-0900455 | 1305 DAVE WARD DR | September 2, 2026 12:57 pm | TRAFFIC PROBLEM-CONTROL | |
| 26-0900454 | 530 S DONAGHEY AVE | September 2, 2026 12:57 pm | ACCIDENT - PRIVATE PROPERTY | |
| 26-0900451 | 26-0900451 | 1115 PARKWAY ST | September 2, 2026 12:47 pm | THEFT OF PROPERTY |
| 26-0900447 | 2000 KEATHLEY DR | September 2, 2026 12:30 pm | CHECK ON THE WELFARE | |
| 26-0900446 | 1116 GUM ST | September 2, 2026 12:22 pm | TRESPASSING | |
| 26-0900445 | 1105 PRAIRIE ST | September 2, 2026 12:18 pm | ATTEMPT TO CONTACT | |
| 26-0900444 | 14 WOODLAWN DR | September 2, 2026 12:17 pm | ATTEMPT TO CONTACT | |
| 26-0900440 | 21 DUNBAR RD | September 2, 2026 11:59 am | NO CONTACT ORDER VIOLATION | |
| 26-0900437 | 1150 FLEMING ST | September 2, 2026 11:42 am | TRAFFIC PROBLEM-CONTROL | |
| 26-0900436 | 1155 SKYLINE DR | September 2, 2026 11:40 am | ATTEMPT TO CONTACT | |
| 26-0900433 | 2570 WINCHESTER DR | September 2, 2026 11:31 am | CHECK ON THE WELFARE | |
| 26-0900430 | 1075 HIGHWAY 65 N | September 2, 2026 11:22 am | ATTEMPT TO CONTACT | |
| 26-0900429 | 1105 PRAIRIE ST | September 2, 2026 11:21 am | ATTEMPT TO CONTACT | |
| 26-0900428 | 1105 PRAIRIE ST | September 2, 2026 11:20 am | ATTEMPT TO CONTACT | |
| 26-0900426 | 705 4TH ST | September 2, 2026 11:09 am | ATTEMPT TO CONTACT | |
| 26-0900425 | 75 KENSINGTON DR | September 2, 2026 11:04 am | SUSPICIOUS PERSON | |
| 26-0900423 | 127 I40EB | September 2, 2026 11:01 am | RECKLESS DRIVER | |
| 26-0900421 | 1900 TYLER ST | September 2, 2026 11:00 am | SUSPICIOUS ACTIVITY | |
| 26-0900420 | 2500 GIBBY DR | September 2, 2026 10:56 am | ATTEMPT TO CONTACT | |
| 26-0900417 | 551 LOLLIE RD | September 2, 2026 10:40 am | AGENCY ASSIST | |
| 26-0900414 | 154 ELLIOTT RD | September 2, 2026 10:32 am | SUSPICIOUS PERSON | |
| 26-0900413 | 1 REPUBLICAN LOOP | September 2, 2026 10:31 am | ATTEMPT TO CONTACT | |
| 26-0900412 | 683 MAIN ST | September 2, 2026 10:28 am | ATTEMPT TO CONTACT | |
| 26-0900410 | 1525 CLIFTON ST | September 2, 2026 10:27 am | BREAKING OR ENTERING | |
| 26-0900406 | 130 HARKRIDER ST | September 2, 2026 10:20 am | TRAFFIC PROBLEM-CONTROL | |
| 26-0900405 | 34 ART POND RD | September 2, 2026 10:19 am | CHECK ON THE WELFARE | |
| 26-0900403 | 26-0900403 | 900 EXCHANGE AVE | September 2, 2026 10:18 am | PROPERTY DAMAGE |
| 26-0900402 | 53 MADISON LN | September 2, 2026 10:14 am | ATTEMPT TO CONTACT | |
| 26-0900401 | 335 STURGIS RD | September 2, 2026 10:14 am | ATTEMPT TO CONTACT | |
| 26-0900397 | 646 S HARKRIDER DR | September 2, 2026 10:02 am | ACCIDENT - PRIVATE PROPERTY | |
| 26-0900394 | 1105 PRAIRIE ST | September 2, 2026 9:56 am | ATTEMPT TO CONTACT | |
| 26-0900393 | 77 HIDDEN VALLEY DR | September 2, 2026 9:54 am | SUPPLEMENT REPORT CALL | |
| 26-0900392 | 77 HIDDEN VALLEY DR | September 2, 2026 9:53 am | SUPPLEMENT REPORT CALL | |
| 26-0900390 | 26-0900390 | 500 S GERMAN LN | September 2, 2026 9:42 am | MISDEMEANOR WARRANT SERVICE |
| 26-0900388 | 26-0900388 | 810 PARKWAY ST | September 2, 2026 9:32 am | MISDEMEANOR WARRANT SERVICE |
| 26-0900387 | 26-0900387 | 810 PARKWAY ST | September 2, 2026 9:31 am | MISDEMEANOR WARRANT SERVICE |
| 26-0900386 | 26-0900386 | 810 PARKWAY ST | September 2, 2026 9:30 am | MISDEMEANOR WARRANT SERVICE |
| 26-0900384 | 26-0900384 | 810 PARKWAY ST | September 2, 2026 9:28 am | MISDEMEANOR WARRANT SERVICE |
| 26-0900383 | 26-0900383 | 810 PARKWAY ST | September 2, 2026 9:27 am | MISDEMEANOR WARRANT SERVICE |
| 26-0900382 | 26-0900382 | 810 PARKWAY ST | September 2, 2026 9:26 am | MISDEMEANOR WARRANT SERVICE |
| 26-0900381 | 26-0900381 | 810 PARKWAY ST | September 2, 2026 9:25 am | MISDEMEANOR WARRANT SERVICE |
| 26-0900380 | 26-0900380 | 810 PARKWAY ST | September 2, 2026 9:25 am | MISDEMEANOR WARRANT SERVICE |
| 26-0900379 | 26-0900379 | 1806 CLARA DR | September 2, 2026 9:24 am | FRAUD |
| 26-0900378 | 26-0900378 | 810 PARKWAY ST | September 2, 2026 9:23 am | MISDEMEANOR WARRANT SERVICE |
| 26-0900377 | 26-0900377 | 810 PARKWAY ST | September 2, 2026 9:22 am | MISDEMEANOR WARRANT SERVICE |
| 26-0900376 | 26-0900376 | 810 PARKWAY ST | September 2, 2026 9:22 am | MISDEMEANOR WARRANT SERVICE |
| 26-0900375 | 1600 WESTLAKE DR | September 2, 2026 9:19 am | VEHICLE TOW | |
| 26-0900374 | 26-0900374 | 810 PARKWAY ST | September 2, 2026 9:19 am | MISDEMEANOR WARRANT SERVICE |
| 26-0900373 | 28 LOWER RIDGE RD | September 2, 2026 9:19 am | ACCIDENT - PERSONAL INJURY | |
| 26-0900371 | 26-0900371 | 810 PARKWAY ST | September 2, 2026 9:19 am | MISDEMEANOR WARRANT SERVICE |
| 26-0900370 | 1349 BRUCE ST | September 2, 2026 9:17 am | STALLED VEHICLE | |
| 26-0900369 | 26-0900369 | 810 PARKWAY ST | September 2, 2026 9:16 am | MISDEMEANOR WARRANT SERVICE |
| 26-0900362 | 1105 PRAIRIE ST | September 2, 2026 8:59 am | ATTEMPT TO CONTACT | |
| 26-0900361 | 1155 SKYLINE DR | September 2, 2026 8:58 am | ACCIDENT - PRIVATE PROPERTY | |
| 26-0900358 | 805 DONAGHEY AVE | September 2, 2026 8:44 am | SUPPLEMENT REPORT CALL | |
| 26-0900357 | 2799 SALEM RD | September 2, 2026 8:44 am | ACCIDENT - PROPERTY DAMAGE | |
| 26-0900356 | 12 AUTUMN HILLS LN | September 2, 2026 8:39 am | BREAKING OR ENTERING | |
| 26-0900355 | 1315 S DONAGHEY AVE | September 2, 2026 8:38 am | CHECKING PERSON | |
| 26-0900352 | 26-0900352 | 1105 PRAIRIE ST | September 2, 2026 8:35 am | MISDEMEANOR WARRANT SERVICE |
| 26-0900350 | 829 OAK ST | September 2, 2026 8:31 am | ACCIDENT - PERSONAL INJURY | |
| 26-0900345 | 15 RIDGEDALE CIR | September 2, 2026 8:13 am | ATTEMPT TO CONTACT | |
| 26-0900343 | 1150 SKYLINE DR | September 2, 2026 8:11 am | ATTEMPT TO CONTACT | |
| 26-0900340 | 558 HIGHWAY 365 | September 2, 2026 7:58 am | FOUND PROPERTY | |
| 26-0900339 | 205 E OAK ST | September 2, 2026 7:56 am | TRESPASSING | |
| 26-0900331 | 24 W WICKER ST | September 2, 2026 7:31 am | ASSIST FIRE | |
| 26-0900329 | 130 I40WB | September 2, 2026 7:28 am | RECKLESS DRIVER | |
| 26-0900327 | 1 REPUBLICAN LOOP | September 2, 2026 7:10 am | CRIMINAL MISCHIEF | |
| 26-0900323 | 1146 DAVIS ST | September 2, 2026 6:36 am | TRAFFIC PROBLEM-CONTROL | |
| 26-0900318 | 220 E OAK ST | September 2, 2026 5:14 am | CHECK ON THE WELFARE | |
| 26-0900315 | 419 E OAK ST | September 2, 2026 4:30 am | STALLED VEHICLE | |
| 26-0900313 | 60 WEST HILLS RD | September 2, 2026 4:07 am | PROWLER | |
| 26-0900312 | 375 E OAK ST | September 2, 2026 3:39 am | TRESPASSING | |
| 26-0900311 | 901 S SALEM RD | September 2, 2026 3:18 am | REPOSSESSION | |
| 26-0900308 | 1 CADRON SETTLEMENT PARK RD | September 2, 2026 2:44 am | CHECKING VEHICLE | |
| 26-0900307 | 2007 ARKANSAS AVE | September 2, 2026 2:21 am | OPEN DOOR/WINDOW/FENCE | |
| 26-0900306 | 955 COVINGTON WAY | September 2, 2026 2:17 am | CHECKING VEHICLE | |
| 26-0900298 | 801 LOCUST AVE | September 2, 2026 12:55 am | ATTEMPT TO CONTACT | |
| 26-0900296 | 855 S GERMAN LN | September 2, 2026 12:33 am | CHECKING VEHICLE | |
| 26-0900294 | 2302 COLLEGE AVE | September 2, 2026 12:17 am | CITIZEN ASSIST | |
| 26-0900293 | 2300 PRINCE ST | September 2, 2026 12:15 am | CHECKING VEHICLE | |
| 26-0900292 | 2310 ROBINSON AVE | September 2, 2026 12:14 am | CHECKING VEHICLE | |
| 26-0900291 | 2325 TYLER ST | September 2, 2026 12:09 am | CHECKING VEHICLE | |
| 26-0900290 | 683 MAIN ST | September 1, 2026 11:56 pm | BURGLARY | |
| 26-0900289 | 9 RIDGE LN | September 1, 2026 11:44 pm | ASSIST FIRE | |
| 26-0900287 | 8 LIBERTY LOOP | September 1, 2026 11:28 pm | DOMESTIC DISTURBANCE | |
| 26-0900286 | 2799 SALEM RD | September 1, 2026 11:18 pm | CHECK ON THE WELFARE | |
| 26-0900284 | 1110 FRONT ST | September 1, 2026 11:04 pm | SUSPICIOUS ACTIVITY | |
| 26-0900282 | 272 BALLARD RD | September 1, 2026 10:58 pm | 911 HANGUP CALL | |
| 26-0900280 | 26-0900280 | 530 S DONAGHEY AVE | September 1, 2026 10:39 pm | PROWLER |
| 26-0900279 | 1706 INDEPENDENCE ST | September 1, 2026 10:33 pm | LOUD NOISE-MUSIC | |
| 26-0900277 | 2475 SANDERS ST | September 1, 2026 10:16 pm | CRIMINAL MISCHIEF | |
| 26-0900275 | 1116 GUM ST | September 1, 2026 10:13 pm | CHECK ON THE WELFARE | |
| 26-0900272 | 220 E OAK ST | September 1, 2026 10:09 pm | TERRORISTIC THREATENING | |
| 26-0900269 | 500 S GERMAN LN | September 1, 2026 10:05 pm | FELONY WARRANT SERVICE | |
| 26-0900266 | 140 LAS COLINAS | September 1, 2026 9:45 pm | 911 HANGUP CALL | |
| 26-0900263 | 600 5TH AVE | September 1, 2026 9:26 pm | CHECKING VEHICLE | |
| 26-0900262 | 1105 PRAIRIE ST | September 1, 2026 9:20 pm | ATTEMPT TO CONTACT | |
| 26-0900260 | 207 WILLOW ST | September 1, 2026 9:14 pm | LOUD NOISE-MUSIC | |
| 26-0900256 | 243 BLYTHE RD | September 1, 2026 8:42 pm | CHECK ON THE WELFARE | |
| 26-0900254 | 2399 MUSEUM RD | September 1, 2026 8:20 pm | HARASSMENT | |
| 26-0900252 | 540 FACTORY ST | September 1, 2026 8:14 pm | ATTEMPT TO CONTACT | |
| 26-0900251 | 2299 STURGIS RD | September 1, 2026 8:11 pm | CHECKING VEHICLE | |
| 26-0900248 | 129 I40EB | September 1, 2026 8:06 pm | ACCIDENT - PERSONAL INJURY | |
| 26-0900247 | 3600 HOMESTEAD RD | September 1, 2026 8:00 pm | CHECKING VEHICLE | |
| 26-0900244 | 26-0900244 | 500 S GERMAN LN | September 1, 2026 7:47 pm | MISDEMEANOR WARRANT SERVICE |
| 26-0900242 | 10 LOWER RIDGE RD | September 1, 2026 7:42 pm | CRIMINAL MISCHIEF | |
| 26-0900240 | 599 E DAVE WARD DR | September 1, 2026 7:40 pm | STALLED VEHICLE | |
| 26-0900236 | 26-0900236 | 2199 MILLERS CREEK DR | September 1, 2026 7:28 pm | TRESPASSING |
| 26-0900235 | 1105 PRAIRIE ST | September 1, 2026 7:22 pm | ATTEMPT TO CONTACT | |
| 26-0900234 | 801 LOCUST AVE | September 1, 2026 7:15 pm | ATTEMPT TO CONTACT | |
| 26-0900233 | 500 S GERMAN LN | September 1, 2026 7:13 pm | MISDEMEANOR WARRANT SERVICE | |
| 26-0900232 | 26-0900232 | 4540 HAWKINS DR | September 1, 2026 7:10 pm | DOMESTIC DISTURBANCE |
| 26-0900231 | 45 BRIERWOOD CIR | September 1, 2026 7:06 pm | THEFT OF PROPERTY | |
| 26-0900229 | 1 MISSILE BASE RD | September 1, 2026 6:49 pm | RECKLESS DRIVER | |
| 26-0900228 | 955 S GERMAN LN | September 1, 2026 6:46 pm | ATTEMPT TO CONTACT | |
| 26-0900227 | 905 SKYLINE DR | September 1, 2026 6:45 pm | ACCIDENT - PROPERTY DAMAGE | |
| 26-0900222 | 5 WADE DR | September 1, 2026 6:37 pm | ATTEMPT TO CONTACT | |
| 26-0900220 | 26-0900220 | 500 S GERMAN LN | September 1, 2026 6:24 pm | MISDEMEANOR WARRANT SERVICE |
| 26-0900218 | 8 NEW OXFORD RD | September 1, 2026 6:21 pm | CHECK ON THE WELFARE | |
| 26-0900217 | 1111 MAIN ST | September 1, 2026 6:21 pm | ACCIDENT - PRIVATE PROPERTY | |
| 26-0900216 | 207 WILLOW ST | September 1, 2026 6:18 pm | SUPPLEMENT REPORT CALL | |
| 26-0900215 | 900 EXCHANGE AVE | September 1, 2026 6:14 pm | RECKLESS DRIVER | |
| 26-0900214 | 26 BLACKJACK RD | September 1, 2026 6:13 pm | 911 HANGUP CALL | |
| 26-0900213 | 1105 PRAIRIE ST | September 1, 2026 6:03 pm | ATTEMPT TO CONTACT | |
| 26-0900210 | 1 ROWLETT LN | September 1, 2026 5:57 pm | CIVIL MATTER | |
| 26-0900209 | 2398 HOGAN LN | September 1, 2026 5:54 pm | STALLED VEHICLE | |
| 26-0900208 | 2205 DAVE WARD DR | September 1, 2026 5:51 pm | ACCIDENT - PROPERTY DAMAGE | |
| 26-0900207 | 4015 GABRIAL DR | September 1, 2026 5:42 pm | ACCIDENT - PRIVATE PROPERTY | |
| 26-0900205 | 215 SKYLINE DR | September 1, 2026 5:37 pm | ASSAULT | |
| 26-0900204 | 525 S GERMAN LN | September 1, 2026 5:35 pm | MISDEMEANOR WARRANT SERVICE | |
| 26-0900201 | 1377 HIGHWAY 36 | September 1, 2026 5:31 pm | ATTEMPT TO CONTACT | |
| 26-0900200 | 1105 PRAIRIE ST | September 1, 2026 5:24 pm | ATTEMPT TO CONTACT | |
| 26-0900199 | 4 LAKE FOREST DR | September 1, 2026 5:24 pm | INTOXICATED DRIVER | |
| 26-0900198 | 334 MILDRED ST | September 1, 2026 5:18 pm | ATTEMPT TO CONTACT | |
| 26-0900197 | 26-0900197 | 2302 COLLEGE AVE | September 1, 2026 5:11 pm | THEFT OF PROPERTY |
| 26-0900196 | 875 HIGHWAY 25 N | September 1, 2026 5:08 pm | BREAKING OR ENTERING | |
| 26-0900195 | 3900 DAVE WARD DR | September 1, 2026 5:07 pm | ATTEMPT TO CONTACT | |
| 26-0900194 | 149 MCDERMOTT TRL | September 1, 2026 5:05 pm | CIVIL MATTER | |
| 26-0900192 | 975 S AMITY RD | September 1, 2026 4:49 pm | STALKING | |
| 26-0900191 | 22 S BROADVIEW | September 1, 2026 4:45 pm | ACCIDENT - PROPERTY DAMAGE | |
| 26-0900190 | 899 EXCHANGE AVE | September 1, 2026 4:40 pm | ACCIDENT - PROPERTY DAMAGE | |
| 26-0900187 | 1701 HARKRIDER ST | September 1, 2026 4:26 pm | 911 HANGUP CALL | |
| 26-0900184 | 1126 MAIN ST | September 1, 2026 4:07 pm | THEFT OF VEHICLE | |
| 26-0900179 | 178 WILLIAMS RANCH RD | September 1, 2026 4:01 pm | SUSPICIOUS VEHICLE | |
| 26-0900177 | 2899 DAVE WARD DR | September 1, 2026 3:58 pm | TRAFFIC PROBLEM-CONTROL | |
| 26-0900176 | 710 S HARKRIDER DR | September 1, 2026 3:49 pm | DISTURBANCE | |
| 26-0900174 | 26-0900174 | 4980 DOVER LN | September 1, 2026 3:43 pm | FRAUD |
| 26-0900173 | 1109 E OAK ST | September 1, 2026 3:39 pm | RECKLESS DRIVER | |
| 26-0900171 | 2 COLD SPRING TRL | September 1, 2026 3:34 pm | DOMESTIC DISTURBANCE | |
| 26-0900165 | 655 EQUITY AVE | September 1, 2026 3:21 pm | CIVIL MATTER | |
| 26-0900164 | 1720 OLD MORRILTON HIGHWAY | September 1, 2026 3:20 pm | ATTEMPT TO CONTACT | |
| 26-0900162 | 32 FOOTHILL DR | September 1, 2026 3:10 pm | DOMESTIC DISTURBANCE | |
| 26-0900160 | 1625 HARKRIDER ST | September 1, 2026 3:08 pm | ACCIDENT - PERSONAL INJURY | |
| 26-0900159 | 1105 PRAIRIE ST | September 1, 2026 3:02 pm | ATTEMPT TO CONTACT | |
| 26-0900158 | 26-0900158 | 475 ROBINS ST | September 1, 2026 2:58 pm | ABUSE |
| 26-0900157 | 489 HIGHWAY 65 N | September 1, 2026 2:56 pm | ROAD RAGE | |
| 26-0900156 | 26-0900156 | 1335 LACROIX LN | September 1, 2026 2:51 pm | THEFT OF PROPERTY |
| 26-0900153 | 76 MILL POND RD | September 1, 2026 2:44 pm | LOST CHILD | |
| 26-0900152 | 1116 GUM ST | September 1, 2026 2:42 pm | CHECK ON THE WELFARE | |
| 26-0900150 | 132 I40WB | September 1, 2026 2:38 pm | RECKLESS DRIVER | |
| 26-0900147 | 26-0900147 | 1405 S DONAGHEY AVE | September 1, 2026 2:25 pm | DISTURBANCE |
| 26-0900145 | 101 SHAW BRIDGE RD | September 1, 2026 2:19 pm | ATTEMPT TO CONTACT | |
| 26-0900142 | 12 ROBIN DR | September 1, 2026 2:02 pm | CITIZEN ASSIST | |
| 26-0900141 | 124 SKUNK HOLLOW RD | September 1, 2026 2:01 pm | HARASSING COMMUNICATIONS | |
| 26-0900140 | 26-0900140 | 1815 PRINCE ST | September 1, 2026 2:00 pm | DISORDERLY CONDUCT |
| 26-0900139 | 42 SUNNY GAP RD | September 1, 2026 1:57 pm | HARASSMENT | |
| 26-0900138 | 26-0900138 | 1245 MCNUTT RD | September 1, 2026 1:50 pm | THEFT OF PROPERTY |
| 26-0900136 | 185 UNION RD | September 1, 2026 1:42 pm | ATTEMPT TO CONTACT | |
| 26-0900133 | 1116 GUM ST | September 1, 2026 1:30 pm | TRESPASSING | |
| 26-0900130 | 1 GRIGGERS LN | September 1, 2026 1:19 pm | CHECKING VEHICLE | |
| 26-0900127 | 1105 PRAIRIE ST | September 1, 2026 12:59 pm | ATTEMPT TO CONTACT | |
| 26-0900126 | 124 I40EB | September 1, 2026 12:55 pm | RECKLESS DRIVER | |
| 26-0900123 | 1895 E OAK ST | September 1, 2026 12:37 pm | FOUND PROPERTY | |
| 26-0900122 | 1802 ROBINS ST | September 1, 2026 12:29 pm | TRESPASSING | |
| 26-0900121 | 26-0900121 | 805 DONAGHEY AVE | September 1, 2026 12:29 pm | TERRORISTIC THREATENING |
| 26-0900119 | 1105 PRAIRIE ST | September 1, 2026 12:28 pm | MISDEMEANOR WARRANT SERVICE | |
| 26-0900114 | 1105 PRAIRIE ST | September 1, 2026 12:14 pm | SUPPLEMENT REPORT CALL | |
| 26-0900107 | 899 S HARKRIDER DR | September 1, 2026 11:55 am | ATTEMPT TO CONTACT | |
| 26-0900106 | 26-0900106 | 1105 PRAIRIE ST | September 1, 2026 11:53 am | MISSING PERSON |
| 26-0900105 | 9 SHADY LANE DR | September 1, 2026 11:49 am | HARASSMENT | |
| 26-0900100 | 635 DAVE WARD DR | September 1, 2026 11:30 am | VEHICLE TOW | |
| 26-0900099 | 199 SKYLINE DR | September 1, 2026 11:27 am | CHECKING VEHICLE | |
| 26-0900098 | 1014 HARKRIDER ST | September 1, 2026 11:20 am | STALLED VEHICLE | |
| 26-0900097 | 1090 SKYLINE DR | September 1, 2026 11:16 am | CHECK ON THE WELFARE | |
| 26-0900096 | 21 FAIR OAKS DR | September 1, 2026 11:14 am | DOMESTIC DISTURBANCE | |
| 26-0900093 | 60 SHAW BRIDGE RD | September 1, 2026 10:56 am | DOMESTIC DISTURBANCE | |
| 26-0900089 | 1105 PRAIRIE ST | September 1, 2026 10:45 am | ATTEMPT TO CONTACT | |
| 26-0900085 | 1365 ROBINS ST | September 1, 2026 10:29 am | CHECK ON THE WELFARE | |
| 26-0900084 | 26-0900084 | 2905 PRINCE ST | September 1, 2026 10:25 am | FRAUD |
| 26-0900083 | 26-0900083 | 2220 PRINCE ST | September 1, 2026 10:23 am | THEFT OF PROPERTY |
| 26-0900082 | 26-0900082 | 1405 S DONAGHEY AVE | September 1, 2026 10:19 am | DISTURBANCE |
| 26-0900081 | 91 FIDDLER RD | September 1, 2026 10:15 am | ATTEMPT TO CONTACT | |
| 26-0900078 | 26-0900078 | 1720 OLD MORRILTON HIGHWAY | September 1, 2026 10:01 am | HARASSING COMMUNICATIONS |
| 26-0900077 | 23 REED RD | September 1, 2026 9:55 am | ASSIST FIRE | |
| 26-0900075 | 8 FOX LN | September 1, 2026 9:49 am | ATTEMPT TO CONTACT | |
| 26-0900072 | 26-0900072 | 207 WILLOW ST | September 1, 2026 9:36 am | DOMESTIC DISTURBANCE |
| 26-0900071 | 14 HILLTOP DR | September 1, 2026 9:35 am | COMPUTER CRIMES | |
| 26-0900069 | 801 LOCUST AVE | September 1, 2026 9:13 am | ATTEMPT TO CONTACT | |
| 26-0900068 | 1405 S DONAGHEY AVE | September 1, 2026 9:12 am | SUPPLEMENT REPORT CALL | |
| 26-0900067 | 26-0900067 | 955 S GERMAN LN | September 1, 2026 9:07 am | CHECK ON THE WELFARE |
| 26-0900065 | 2 TUMBLEWOOD DR | September 1, 2026 8:59 am | THEFT OF PROPERTY | |
| 26-0900064 | 925 MITCHELL ST | September 1, 2026 8:58 am | ABANDONED VEHICLE | |
| 26-0900062 | 23 REED RD | September 1, 2026 8:46 am | CHECKING VEHICLE | |
| 26-0900058 | 1600 WESTLAKE DR | September 1, 2026 8:29 am | REPOSSESSION | |
| 26-0900057 | 16 CYPRESS LOOP | September 1, 2026 8:28 am | CIVIL MATTER | |
| 26-0900056 | 20 BRONNIE LN | September 1, 2026 8:19 am | ACCIDENT - PRIVATE PROPERTY | |
| 26-0900054 | 3435 BLACKSMITH DR | September 1, 2026 8:09 am | ATTEMPT TO CONTACT | |
| 26-0900051 | 1005 S GERMAN LN | September 1, 2026 8:05 am | STALLED VEHICLE | |
| 26-0900048 | 360 SHAW ST | September 1, 2026 8:03 am | ATTEMPT TO CONTACT | |
| 26-0900043 | 3974 SERAPH DR | September 1, 2026 7:51 am | REPOSSESSION | |
| 26-0900042 | 29 N COLLEGE ST | September 1, 2026 7:48 am | ACCIDENT - PROPERTY DAMAGE | |
| 26-0900040 | 26-0900040 | 1105 PRAIRIE ST | September 1, 2026 7:47 am | FELONY WARRANT SERVICE |
| 26-0900039 | 217 HIGHWAY 286 E | September 1, 2026 7:45 am | STALLED VEHICLE | |
| 26-0900036 | 617 HIGHWAY 65 N | September 1, 2026 7:36 am | CHECKING VEHICLE | |
| 26-0900035 | 1949 PRINCE ST | September 1, 2026 7:28 am | ACCIDENT - PROPERTY DAMAGE | |
| 26-0900031 | 4550 OLD MORRILTON HIGHWAY | September 1, 2026 6:57 am | TRESPASSING | |
| 26-0900029 | 1105 PRAIRIE ST | September 1, 2026 6:28 am | FOUND PROPERTY | |
| 26-0900028 | 26-0900028 | 5375 LANTANA DR | September 1, 2026 5:43 am | LOST CHILD |
| 26-0900027 | 199 HIGHWAY 107 S | September 1, 2026 5:25 am | CHECK ON THE WELFARE | |
| 26-0900025 | 150 E OAK ST | September 1, 2026 4:35 am | CHECKING VEHICLE | |
| 26-0900024 | 801 ELSINGER BLVD | September 1, 2026 4:04 am | CHECKING VEHICLE | |
| 26-0900021 | 2219 E OAK ST | September 1, 2026 3:26 am | TRAFFIC PROBLEM-CONTROL | |
| 26-0900020 | 1200 COVINGTON WAY | September 1, 2026 2:20 am | LOUD NOISE-MUSIC | |
| 26-0900019 | 1705 S SALEM RD | September 1, 2026 2:20 am | CHECKING PERSON | |
| 26-0900016 | 379 HIGHWAY 65 N | September 1, 2026 2:11 am | CHECKING VEHICLE | |
| 26-0900015 | 600 5TH AVE | September 1, 2026 2:10 am | CHECKING PERSON | |
| 26-0900014 | 183 PINE VALLEY DR | September 1, 2026 1:55 am | ASSAULT | |
| 26-0900013 | 1900 TYLER ST | September 1, 2026 1:54 am | CHECKING VEHICLE | |
| 26-0900006 | 253 ROCKY POINT RD | September 1, 2026 1:01 am | DISTURBANCE | |
| 26-0900001 | 2010 RICH SMITH LN | September 1, 2026 12:06 am | VEHICLE TOW | |
| 26-0809897 | 2823 COLLEGE AVE | August 31, 2026 11:57 pm | ATTEMPT TO CONTACT | |
| 26-0809896 | 836 WATKINS ST | August 31, 2026 11:53 pm | REPOSSESSION | |
| 26-0809894 | 1649 BRUCE ST | August 31, 2026 11:46 pm | TRESPASSING | |
| 26-0809893 | 253 ROCKY POINT RD | August 31, 2026 11:44 pm | ATTEMPT TO CONTACT | |
| 26-0809888 | 300 BRUCE ST | August 31, 2026 10:51 pm | REPOSSESSION | |
| 26-0809887 | 277 HIGHWAY 64 E | August 31, 2026 10:48 pm | RECKLESS DRIVER | |
| 26-0809886 | 1126 MAIN ST | August 31, 2026 10:39 pm | VEHICLE TOW | |
| 26-0809885 | 799 HOGAN LN | August 31, 2026 10:28 pm | RECKLESS DRIVER | |
| 26-0809877 | 2210 KRYSTAL KREEK DR | August 31, 2026 9:49 pm | ASSIST FIRE | |
| 26-0809874 | 1116 GUM ST | August 31, 2026 9:30 pm | AGENCY ASSIST | |
| 26-0809870 | 1317 HIGHWAY 36 | August 31, 2026 9:22 pm | COMPUTER CRIMES | |
| 26-0809868 | 27 WILCOX RD | August 31, 2026 9:10 pm | SUSPICIOUS VEHICLE | |
| 26-0809866 | 487 HIGHWAY 365 | August 31, 2026 8:50 pm | RECKLESS DRIVER | |
| 26-0809864 | 104 HAWTHICKET RD | August 31, 2026 8:46 pm | TRESPASSING | |
| 26-0809863 | 1603 HARTJE LN | August 31, 2026 8:46 pm | CHECK ON THE WELFARE | |
| 26-0809859 | 2300 PRINCE ST | August 31, 2026 8:38 pm | ACCIDENT - PRIVATE PROPERTY | |
| 26-0809858 | 1740 S SALEM RD | August 31, 2026 8:37 pm | AGENCY ASSIST | |
| 26-0809856 | 2085 KEATHLEY DR | August 31, 2026 8:34 pm | LOUD NOISE-MUSIC | |
| 26-0809855 | 253 ROCKY POINT RD | August 31, 2026 8:31 pm | THEFT OF VEHICLE | |
| 26-0809851 | 26-0809851 | 1170 S AMITY RD | August 31, 2026 8:12 pm | INTOXICATED DRIVER |
| 26-0809848 | 9 BRIERWOOD CIR | August 31, 2026 8:00 pm | CIVIL STAND BY | |
| 26-0809847 | 1518 HIGHWAY 65 N | August 31, 2026 7:53 pm | CRIMINAL MISCHIEF | |
| 26-0809846 | 207 WILLOW ST | August 31, 2026 7:52 pm | CITIZEN ASSIST | |
| 26-0809845 | 865 HIGHWAY 287 | August 31, 2026 7:48 pm | FIGHT | |
| 26-0809844 | 26-0809844 | 2840 DAVE WARD DR | August 31, 2026 7:45 pm | ASSAULT |
| 26-0809843 | 1405 S DONAGHEY AVE | August 31, 2026 7:45 pm | DISTURBANCE | |
| 26-0809842 | 1750 APPALACHAIN DR | August 31, 2026 7:40 pm | CHECK ON THE WELFARE | |
| 26-0809841 | 26-0809841 | 701 1ST AVE | August 31, 2026 7:39 pm | CIVIL MATTER |
| 26-0809840 | 321 ARKAVALLEY RD | August 31, 2026 7:38 pm | ATTEMPT TO CONTACT | |
| 26-0809837 | 207 WILLOW ST | August 31, 2026 7:32 pm | LOUD NOISE-MUSIC | |
| 26-0809835 | 2100 MUSEUM RD | August 31, 2026 7:26 pm | NO CONTACT ORDER VIOLATION | |
| 26-0809831 | 151 SOLOMON GROVE RD | August 31, 2026 7:14 pm | RECKLESS DRIVER | |
| 26-0809830 | 2099 DAVE WARD DR | August 31, 2026 7:12 pm | STALLED VEHICLE | |
| 26-0809828 | 599 E DAVE WARD DR | August 31, 2026 7:09 pm | RECKLESS DRIVER | |
| 26-0809827 | 241 S BROADVIEW | August 31, 2026 7:09 pm | CHECK ON THE WELFARE | |
| 26-0809825 | 20 GOLD LAKE CLUB RD | August 31, 2026 7:00 pm | ATTEMPT TO CONTACT | |
| 26-0809821 | 127 I40WB | August 31, 2026 6:31 pm | RECKLESS DRIVER | |
| 26-0809818 | 66 GOLD MINE SPRINGS RD | August 31, 2026 6:23 pm | HARASSMENT | |
| 26-0809817 | 550 SALEM RD | August 31, 2026 6:18 pm | TRESPASSING | |
| 26-0809814 | 26-0809814 | 1505 E OAK ST | August 31, 2026 6:11 pm | THEFT OF PROPERTY |
| 26-0809813 | 17027 HIGHWAY 65 N | August 31, 2026 5:58 pm | RECKLESS DRIVER | |
| 26-0809810 | 3900 DAVE WARD DR | August 31, 2026 5:40 pm | SHOPLIFTING | |
| 26-0809809 | 1001 MCNUTT RD | August 31, 2026 5:28 pm | ATTEMPT TO CONTACT | |
| 26-0809808 | 380 HARKRIDER ST | August 31, 2026 5:24 pm | ENDANGERING WELFARE OF MINOR | |
| 26-0809805 | 2915 PEBBLE BEACH DR | August 31, 2026 5:00 pm | CITIZEN ASSIST | |
| 26-0809802 | 84 E CADRON RIDGE RD | August 31, 2026 4:53 pm | FRAUD | |
| 26-0809800 | 777 S EAST GERMAN LN | August 31, 2026 4:47 pm | ACCIDENT - PRIVATE PROPERTY | |
| 26-0809798 | 78 S CHURCH ST | August 31, 2026 4:45 pm | HARASSING COMMUNICATIONS | |
| 26-0809795 | 545 SKYLINE DR | August 31, 2026 4:41 pm | ACCIDENT - PROPERTY DAMAGE | |
| 26-0809794 | 1 ELLIOTT RD | August 31, 2026 4:36 pm | ACCIDENT - PROPERTY DAMAGE | |
| 26-0809793 | 1620 MIDDLE RD | August 31, 2026 4:34 pm | LOST CHILD | |
| 26-0809792 | 5 ASHBERRY CV | August 31, 2026 4:32 pm | UNKNOWN TROUBLE | |
| 26-0809791 | 3900 DAVE WARD DR | August 31, 2026 4:29 pm | ACCIDENT - PRIVATE PROPERTY | |
| 26-0809786 | 3895 FRIENDSHIP RD | August 31, 2026 4:20 pm | TRAFFIC PROBLEM-CONTROL | |
| 26-0809785 | 508 LOCUST AVE | August 31, 2026 4:19 pm | CHECK ON THE WELFARE | |
| 26-0809782 | 253 ROCKY POINT RD | August 31, 2026 4:15 pm | THEFT OF VEHICLE | |
| 26-0809781 | 1105 PRAIRIE ST | August 31, 2026 4:11 pm | ATTEMPT TO CONTACT | |
| 26-0809779 | 2099 DAVE WARD DR | August 31, 2026 4:08 pm | ACCIDENT - PROPERTY DAMAGE | |
| 26-0809777 | 15 CHURCH CIR | August 31, 2026 3:59 pm | HARASSMENT | |
| 26-0809769 | 18 GOLD LAKE CLUB RD | August 31, 2026 3:26 pm | ATTEMPT TO CONTACT | |
| 26-0809768 | 855 SALEM RD | August 31, 2026 3:14 pm | ATTEMPT TO CONTACT | |
| 26-0809766 | 500 S GERMAN LN | August 31, 2026 3:08 pm | FELONY WARRANT SERVICE | |
| 26-0809765 | 550 SKYLINE DR | August 31, 2026 2:57 pm | STALLED VEHICLE | |
| 26-0809763 | 727 S DONAGHEY AVE | August 31, 2026 2:50 pm | STALLED VEHICLE | |
| 26-0809761 | 199 SKYLINE DR | August 31, 2026 2:48 pm | ACCIDENT - PERSONAL INJURY | |
| 26-0809758 | 425 E DAVE WARD DR | August 31, 2026 2:45 pm | VEHICLE TOW | |
| 26-0809753 | 724 HARKRIDER ST | August 31, 2026 2:38 pm | TRAFFIC PROBLEM-CONTROL | |
| 26-0809750 | 801 ELSINGER BLVD | August 31, 2026 2:35 pm | ACCIDENT - PROPERTY DAMAGE | |
| 26-0809748 | 1105 PRAIRIE ST | August 31, 2026 2:30 pm | ATTEMPT TO CONTACT | |
| 26-0809747 | 26-0809747 | 1815 PRINCE ST | August 31, 2026 2:29 pm | TERRORISTIC THREATENING |
| 26-0809745 | 705 4TH ST | August 31, 2026 2:24 pm | CHECK ON THE WELFARE | |
| 26-0809742 | 2700 CARL STUART ST | August 31, 2026 2:17 pm | CHECK ON THE WELFARE | |
| 26-0809741 | 89 ASHBERRY LN | August 31, 2026 2:16 pm | ATTEMPT TO CONTACT | |
| 26-0809737 | 2300 PRINCE ST | August 31, 2026 2:02 pm | TRAFFIC PROBLEM-CONTROL | |
| 26-0809736 | 22 S CHURCH ST | August 31, 2026 2:02 pm | ATTEMPT TO CONTACT | |
| 26-0809734 | 1616 WESTLAKE DR | August 31, 2026 1:53 pm | ATTEMPT TO CONTACT | |
| 26-0809733 | 1599 STANLEY RUSS RD | August 31, 2026 1:47 pm | ACCIDENT - PROPERTY DAMAGE | |
| 26-0809732 | 955 S GERMAN LN | August 31, 2026 1:45 pm | HARASSING COMMUNICATIONS | |
| 26-0809725 | 2150 HARKRIDER ST | August 31, 2026 1:23 pm | CITIZEN ASSIST | |
| 26-0809721 | 2225 PRINCE ST | August 31, 2026 1:06 pm | ACCIDENT - PRIVATE PROPERTY | |
| 26-0809720 | 215 LOWER RIDGE RD | August 31, 2026 1:03 pm | TRAFFIC PROBLEM-CONTROL | |
| 26-0809718 | 26-0809718 | 1815 PRINCE ST | August 31, 2026 12:56 pm | MINOR IN POSSESSION |
| 26-0809717 | 3430 IRBY DR | August 31, 2026 12:51 pm | BREAKING OR ENTERING | |
| 26-0809713 | 26-0809713 | 1899 E OAK ST | August 31, 2026 12:41 pm | PROPERTY DAMAGE |
| 26-0809711 | 670 HIGHWAY 65 N | August 31, 2026 12:39 pm | TRAFFIC PROBLEM-CONTROL | |
| 26-0809708 | 697 HIGHWAY 365 | August 31, 2026 12:20 pm | ROAD RAGE | |
| 26-0809707 | 1555 EXCHANGE AVE | August 31, 2026 12:17 pm | CHECK ON THE WELFARE | |
| 26-0809706 | 26-0809706 | 500 S GERMAN LN | August 31, 2026 12:17 pm | NO CONTACT ORDER VIOLATION |
| 26-0809704 | 9 DAY LN | August 31, 2026 12:13 pm | ATTEMPT TO CONTACT | |
| 26-0809703 | 1105 PRAIRIE ST | August 31, 2026 12:11 pm | FOUND PROPERTY | |
| 26-0809702 | 10 DAWN DR E | August 31, 2026 12:09 pm | CIVIL MATTER | |
| 26-0809699 | 326 HIGHWAY 286 E | August 31, 2026 11:47 am | DOMESTIC DISTURBANCE | |
| 26-0809697 | 129 I40WB | August 31, 2026 11:34 am | RECKLESS DRIVER | |
| 26-0809695 | 126 I40WB | August 31, 2026 11:27 am | ACCIDENT - PROPERTY DAMAGE | |
| 26-0809694 | 899 E OAK ST | August 31, 2026 11:26 am | ACCIDENT - PROPERTY DAMAGE | |
| 26-0809693 | 2840 DAVE WARD DR | August 31, 2026 11:18 am | ATTEMPT TO CONTACT | |
| 26-0809686 | 1105 PRAIRIE ST | August 31, 2026 10:33 am | ATTEMPT TO CONTACT | |
| 26-0809683 | 26-0809683 | 1105 PRAIRIE ST | August 31, 2026 10:24 am | MISDEMEANOR WARRANT SERVICE |
| 26-0809681 | 26-0809681 | 801 HOGAN LN | August 31, 2026 10:19 am | CRIMINAL MISCHIEF |
| 26-0809680 | 1799 HIGHWAY 36 | August 31, 2026 10:14 am | TRAFFIC PROBLEM-CONTROL | |
| 26-0809676 | 127 I40WB | August 31, 2026 10:06 am | TRAFFIC PROBLEM-CONTROL | |
| 26-0809675 | 1616 WESTLAKE DR | August 31, 2026 10:03 am | ATTEMPT TO CONTACT | |
| 26-0809673 | 11 FOX LN | August 31, 2026 9:53 am | THEFT OF SERVICES | |
| 26-0809670 | 10 S NOWLIN LN | August 31, 2026 9:34 am | SHOTS FIRED | |
| 26-0809668 | 69 E WALKER RD | August 31, 2026 9:32 am | TERRORISTIC THREATENING | |
| 26-0809667 | 28 INTEGRITY LOOP | August 31, 2026 9:32 am | THEFT OF PROPERTY | |
| 26-0809666 | 177 PLANTATION DR | August 31, 2026 9:24 am | HARASSMENT | |
| 26-0809662 | 26-0809662 | 400 SALEM RD | August 31, 2026 9:10 am | SUPPLEMENT REPORT CALL |
| 26-0809655 | 53 NORTH HILLS DR | August 31, 2026 8:41 am | ATTEMPT TO CONTACT | |
| 26-0809654 | 2420 MORSE DR | August 31, 2026 8:41 am | SUPPLEMENT REPORT CALL | |
| 26-0809653 | 73 ROBINSON RD | August 31, 2026 8:35 am | SUPPLEMENT REPORT CALL | |
| 26-0809652 | 26-0809652 | 311 OAK ST | August 31, 2026 8:31 am | THEFT OF PROPERTY |
| 26-0809650 | 1601 S DONAGHEY AVE | August 31, 2026 8:23 am | ACCIDENT - PRIVATE PROPERTY | |
| 26-0809648 | 136 APPLEYARD RD | August 31, 2026 8:23 am | ATTEMPT TO CONTACT | |
| 26-0809645 | 73 FULLER RD | August 31, 2026 8:16 am | ATTEMPT TO CONTACT | |
| 26-0809642 | 12 S BOLDEN HILL RD | August 31, 2026 8:11 am | CHECK ON THE WELFARE | |
| 26-0809641 | 1105 PRAIRIE ST | August 31, 2026 8:06 am | ATTEMPT TO CONTACT | |
| 26-0809640 | 26-0809640 | 2220 RAINTREE DR | August 31, 2026 8:05 am | LOST CHILD |
| 26-0809639 | 811 E OAK ST | August 31, 2026 8:00 am | ACCIDENT - PROPERTY DAMAGE | |
| 26-0809638 | 4 BANE LN | August 31, 2026 8:00 am | CITIZEN ASSIST | |
| 26-0809637 | 315 BAKER-WILLS PKWY | August 31, 2026 7:59 am | CHECK ON THE WELFARE | |
| 26-0809635 | 855 S SALEM RD | August 31, 2026 7:45 am | CHECK ON THE WELFARE | |
| 26-0809633 | 36 PLACE LN | August 31, 2026 7:45 am | CITIZEN ASSIST | |
| 26-0809631 | 799 CENTER ST | August 31, 2026 7:37 am | CHECKING PERSON | |
| 26-0809629 | 3435 BLACKSMITH DR | August 31, 2026 7:30 am | ATTEMPT TO CONTACT | |
| 26-0809628 | 500 S GERMAN LN | August 31, 2026 7:06 am | FELONY WARRANT SERVICE | |
| 26-0809622 | 45 BRIARWOOD ST | August 31, 2026 5:52 am | BURGLARY | |
| 26-0809621 | 77 HIDDEN VALLEY DR | August 31, 2026 5:42 am | SUPPLEMENT REPORT CALL | |
| 26-0809619 | 2840 DAVE WARD DR | August 31, 2026 4:44 am | ATTEMPT TO CONTACT | |
| 26-0809618 | 253 ROCKY POINT RD | August 31, 2026 4:29 am | ATTEMPT TO CONTACT | |
| 26-0809617 | 2840 DAVE WARD DR | August 31, 2026 4:25 am | ATTEMPT TO CONTACT | |
| 26-0809616 | 253 ROCKY POINT RD | August 31, 2026 4:17 am | DOMESTIC DISTURBANCE | |
| 26-0809604 | 354 HIGHWAY 64 E | August 31, 2026 2:21 am | CHECKING VEHICLE | |
| 26-0809602 | 89 BRIARWOOD ST | August 31, 2026 2:11 am | SUSPICIOUS ACTIVITY | |
| 26-0809597 | 53 BARHAM LOOP | August 31, 2026 12:27 am | SUSPICIOUS ACTIVITY | |
| 26-0809595 | 253 ROCKY POINT RD | August 30, 2026 11:48 pm | SUPPLEMENT REPORT CALL | |
| 26-0809592 | 26-0809592 | 235 FARRIS RD | August 30, 2026 11:35 pm | SHOTS FIRED |
| 26-0809591 | 1375 THOMAS G WILSON DR | August 30, 2026 11:33 pm | CHECKING VEHICLE | |
| 26-0809587 | 2199 ADA AVE | August 30, 2026 11:17 pm | LOUD NOISE-MUSIC | |
| 26-0809584 | 2449 DAVE WARD DR | August 30, 2026 11:09 pm | RECKLESS DRIVER | |
| 26-0809580 | 134 HARKRIDER ST | August 30, 2026 10:28 pm | CHECKING PERSON | |
| 26-0809579 | 1320 S GERMAN LN | August 30, 2026 10:21 pm | STALLED VEHICLE | |
| 26-0809578 | 770 HIGHWAY 365 | August 30, 2026 10:14 pm | DISTURBANCE | |
| 26-0809577 | 253 ROCKY POINT RD | August 30, 2026 10:08 pm | PROPERTY DAMAGE | |
| 26-0809576 | 2665 DONAGHEY AVE | August 30, 2026 10:07 pm | CHECKING VEHICLE | |
| 26-0809573 | 1213 LINCOLN ST | August 30, 2026 10:03 pm | ACCIDENT - PRIVATE PROPERTY | |
| 26-0809571 | 300 S DONAGHEY AVE | August 30, 2026 9:58 pm | LOUD NOISE-MUSIC | |
| 26-0809568 | 1155 SKYLINE DR | August 30, 2026 9:46 pm | PARKING VIOLATION | |
| 26-0809567 | 150 S HOGAN LN | August 30, 2026 9:46 pm | ACCIDENT - PERSONAL INJURY | |
| 26-0809566 | 5001 DONNELL RIDGE RD | August 30, 2026 9:42 pm | TRESPASSING | |
| 26-0809564 | 1200 COVINGTON WAY | August 30, 2026 9:36 pm | FOUND PROPERTY | |
| 26-0809563 | 97 SOLOMON GROVE RD | August 30, 2026 9:35 pm | ATTEMPT TO CONTACT | |
| 26-0809558 | 39 WILSON FARM RD | August 30, 2026 9:03 pm | RECKLESS DRIVER | |
| 26-0809557 | 323 HIGHWAY 89 N | August 30, 2026 9:02 pm | RECKLESS DRIVER | |
| 26-0809556 | 7 BARBARA POINTE | August 30, 2026 8:54 pm | LOUD NOISE-MUSIC | |
| 26-0809555 | 220 HIGHWAY 124 W | August 30, 2026 8:51 pm | SUSPICIOUS VEHICLE | |
| 26-0809553 | 26-0809553 | 3900 DAVE WARD DR | August 30, 2026 8:45 pm | SHOPLIFTING |
| 26-0809552 | 2 CENTER RD | August 30, 2026 8:43 pm | DISTURBANCE | |
| 26-0809551 | 26-0809551 | 1 CADRON SETTLEMENT PARK RD | August 30, 2026 8:36 pm | DISTURBANCE |
| 26-0809550 | 2125 HARKRIDER ST | August 30, 2026 8:35 pm | TRESPASSING | |
| 26-0809549 | 401 2ND ST | August 30, 2026 8:31 pm | DISORDERLY CONDUCT | |
| 26-0809548 | 30 WHITE OAK RD | August 30, 2026 8:28 pm | SUPPLEMENT REPORT CALL | |
| 26-0809547 | 101 OAK ST | August 30, 2026 8:22 pm | SHOPLIFTING | |
| 26-0809546 | 162 PINNACLE SPRINGS RD | August 30, 2026 8:20 pm | THEFT OF SERVICES | |
| 26-0809545 | 2060 SHADOW FALLS DR | August 30, 2026 8:15 pm | BURGLARY | |
| 26-0809544 | 3 SCENIC ACRES TRL | August 30, 2026 8:15 pm | ATTEMPT TO CONTACT | |
| 26-0809543 | 17 WINDING BRANCH LN | August 30, 2026 8:11 pm | DOMESTIC DISTURBANCE | |
| 26-0809542 | 1030 WINEBERRY RD | August 30, 2026 8:11 pm | TRESPASSING | |
| 26-0809539 | 26-0809539 | 2840 DAVE WARD DR | August 30, 2026 7:55 pm | DISTURBANCE |
| 26-0809538 | 26-0809538 | 1210 WILLIAM J CLARK DR | August 30, 2026 7:49 pm | CHECKING VEHICLE |
| 26-0809536 | 97 SOLOMON GROVE RD | August 30, 2026 7:42 pm | ATTEMPT TO CONTACT | |
| 26-0809534 | 177 PLANTATION DR | August 30, 2026 7:26 pm | CIVIL MATTER | |
| 26-0809533 | 26-0809533 | 9 BRIERWOOD CIR | August 30, 2026 7:01 pm | UNKNOWN TROUBLE |
| 26-0809532 | 1915 ERBACH ST | August 30, 2026 6:59 pm | ATTEMPT TO CONTACT | |
| 26-0809531 | 26-0809531 | 499 DONAGHEY AVE | August 30, 2026 6:57 pm | FLOCK ALERT |
| 26-0809530 | 419 E OAK ST | August 30, 2026 6:47 pm | RECKLESS DRIVER | |
| 26-0809528 | 5001 DONNELL RIDGE RD | August 30, 2026 6:44 pm | TRESPASSING | |
| 26-0809526 | 3 VISTA TRL | August 30, 2026 6:34 pm | SUPPLEMENT REPORT CALL | |
| 26-0809525 | 1155 SKYLINE DR | August 30, 2026 6:23 pm | ASSIST FIRE | |
| 26-0809521 | 10 S NOWLIN LN | August 30, 2026 6:12 pm | SHOTS FIRED | |
| 26-0809518 | 100 BILL HEGEMAN BLVD | August 30, 2026 6:04 pm | ACCIDENT - PRIVATE PROPERTY | |
| 26-0809517 | 799 DONAGHEY AVE | August 30, 2026 6:02 pm | STALLED VEHICLE | |
| 26-0809515 | 1616 WESTLAKE DR | August 30, 2026 5:41 pm | ATTEMPT TO CONTACT | |
| 26-0809514 | 26-0809514 | 1161 OLD MORRILTON HIGHWAY | August 30, 2026 5:32 pm | BATTERY REPORT |
| 26-0809513 | 26-0809513 | 14 WOODLAWN DR | August 30, 2026 5:28 pm | MISDEMEANOR WARRANT SERVICE |
| 26-0809512 | 1083 S GERMAN LN | August 30, 2026 5:26 pm | STALLED VEHICLE | |
| 26-0809511 | 60 GREEN TIMBER WAY | August 30, 2026 5:20 pm | BATTERY REPORT | |
| 26-0809510 | 2699 OVERCUP DR | August 30, 2026 5:08 pm | ORDINANCE VIOLATION | |
| 26-0809509 | 2370 SANDERS ST | August 30, 2026 5:04 pm | FRAUD | |
| 26-0809503 | 2310 ROBINSON AVE | August 30, 2026 4:43 pm | DOMESTIC DISTURBANCE | |
| 26-0809499 | 330 HIGHWAY 285 N | August 30, 2026 4:36 pm | ACCIDENT - PROPERTY DAMAGE | |
| 26-0809496 | 3049 INTERSTATE 40 RAMP | August 30, 2026 4:28 pm | STALLED VEHICLE | |
| 26-0809492 | 2799 SALEM RD | August 30, 2026 4:05 pm | ATTEMPT TO CONTACT | |
| 26-0809490 | 801 LOCUST AVE | August 30, 2026 3:52 pm | ATTEMPT TO CONTACT | |
| 26-0809485 | 441 MOUNT NEBO RD | August 30, 2026 3:32 pm | ATTEMPT TO CONTACT | |
| 26-0809483 | 2480 OLD MORRILTON HIGHWAY | August 30, 2026 3:23 pm | STALLED VEHICLE | |
| 26-0809480 | 915 E OAK ST | August 30, 2026 3:01 pm | TRESPASSING | |
| 26-0809479 | 1250 S AMITY RD | August 30, 2026 2:58 pm | ACCIDENT - PRIVATE PROPERTY | |
| 26-0809475 | 100 BILL HEGEMAN BLVD | August 30, 2026 2:47 pm | ATTEMPT TO CONTACT | |
| 26-0809474 | 4 SARAHS PL | August 30, 2026 2:47 pm | ATTEMPT TO CONTACT | |
| 26-0809473 | 26-0809473 | 14 WOODLAWN DR | August 30, 2026 2:45 pm | BURGLARY |
| 26-0809471 | 150 AMITY RD | August 30, 2026 2:41 pm | MISSING PERSON | |
| 26-0809469 | 199 SKYLINE DR | August 30, 2026 2:38 pm | ACCIDENT - PROPERTY DAMAGE | |
| 26-0809468 | 101 S BROADVIEW | August 30, 2026 2:36 pm | RECKLESS DRIVER | |
| 26-0809466 | 284 HIGHWAY 365 | August 30, 2026 2:29 pm | TRESPASSING | |
| 26-0809465 | 575 5TH AVE | August 30, 2026 2:26 pm | SUSPICIOUS ACTIVITY | |
| 26-0809463 | 1200 COVINGTON WAY | August 30, 2026 2:13 pm | DOMESTIC DISTURBANCE | |
| 26-0809462 | 1320 S GERMAN LN | August 30, 2026 2:09 pm | STALLED VEHICLE | |
| 26-0809461 | 26-0809461 | 999 EAST GERMAN LN | August 30, 2026 2:05 pm | ACCIDENT - HIT AND RUN |
| 26-0809459 | 4535 RENFROW ST | August 30, 2026 1:59 pm | ATTEMPT TO CONTACT | |
| 26-0809458 | 26-0809458 | 2665 DONAGHEY AVE | August 30, 2026 1:55 pm | ATTEMPT TO CONTACT |
| 26-0809457 | 26-0809457 | 2125 MORNING GLORY | August 30, 2026 1:53 pm | INTERFERENCE WITH CUSTODY |
| 26-0809455 | 1040 KNOBLE DR | August 30, 2026 1:45 pm | ATTEMPT TO CONTACT | |
| 26-0809454 | 1250 S AMITY RD | August 30, 2026 1:43 pm | ACCIDENT - PRIVATE PROPERTY | |
| 26-0809453 | 801 LOCUST AVE | August 30, 2026 1:41 pm | ATTEMPT TO CONTACT | |
| 26-0809451 | 1622 WESTLAKE DR | August 30, 2026 1:38 pm | TRESPASSING | |
| 26-0809449 | 2585 DONAGHEY AVE | August 30, 2026 1:29 pm | RECKLESS DRIVER | |
| 26-0809448 | 2695 DAVE WARD DR | August 30, 2026 1:28 pm | HARASSING COMMUNICATIONS | |
| 26-0809442 | 2899 PRINCE ST | August 30, 2026 1:04 pm | STALLED VEHICLE | |
| 26-0809441 | 26-0809441 | 3050 PEBBLE BEACH DR | August 30, 2026 12:59 pm | PROPERTY DAMAGE |
| 26-0809438 | 56 GREEN TIMBER WAY | August 30, 2026 12:52 pm | ASSIST FIRE | |
| 26-0809436 | 1155 SKYLINE DR | August 30, 2026 12:49 pm | CHECKING PERSON | |
| 26-0809435 | 97 SOLOMON GROVE RD | August 30, 2026 12:26 pm | ATTEMPT TO CONTACT | |
| 26-0809434 | 26-0809434 | 2695 DAVE WARD DR | August 30, 2026 12:18 pm | THEFT OF PROPERTY |
| 26-0809433 | 26-0809433 | 100 BILL HEGEMAN BLVD | August 30, 2026 12:14 pm | DOMESTIC DISTURBANCE |
| 26-0809430 | 7 N BOLDEN HILL RD | August 30, 2026 12:00 pm | INTERFERENCE WITH CUSTODY | |
| 26-0809429 | 707 HIGHWAY 365 | August 30, 2026 11:59 am | ASSIST FIRE | |
| 26-0809424 | 23 N COKER RD | August 30, 2026 11:51 am | 911 HANGUP CALL | |
| 26-0809420 | 2299 E OAK ST | August 30, 2026 11:13 am | RECKLESS DRIVER | |
| 26-0809419 | 26-0809419 | 2055 HARKRIDER ST | August 30, 2026 11:06 am | ACCIDENT - PROPERTY DAMAGE |
| 26-0809418 | 1305 DAVE WARD DR | August 30, 2026 10:58 am | ENDANGERING WELFARE OF MINOR | |
| 26-0809417 | 2840 DAVE WARD DR | August 30, 2026 10:57 am | VEHICLE TOW | |
| 26-0809416 | 26-0809416 | 1616 WESTLAKE DR | August 30, 2026 10:57 am | THEFT OF PROPERTY |
| 26-0809415 | 2825 FLOYD DR | August 30, 2026 10:50 am | 911 HANGUP CALL | |
| 26-0809414 | 2855 STONEWOOD DR | August 30, 2026 10:50 am | ACCIDENT - PROPERTY DAMAGE | |
| 26-0809413 | 1263 ROBINS ST | August 30, 2026 10:47 am | UNKNOWN TROUBLE | |
| 26-0809412 | 3 VISTA TRL | August 30, 2026 10:43 am | ATTEMPT TO CONTACT | |
| 26-0809410 | 26 CASH SPRINGS RD | August 30, 2026 10:34 am | AGENCY ASSIST | |
| 26-0809409 | 801 LOCUST AVE | August 30, 2026 10:32 am | ATTEMPT TO CONTACT | |
| 26-0809404 | 25 THIRD CIR | August 30, 2026 10:11 am | SUSPICIOUS PERSON | |
| 26-0809402 | 1505 DOGWOOD TRL | August 30, 2026 9:48 am | DOMESTIC DISTURBANCE | |
| 26-0809398 | 2 WHITE OAK DR | August 30, 2026 9:36 am | ATTEMPT TO CONTACT | |
| 26-0809397 | 163 ROUND MOUNTAIN RD | August 30, 2026 9:33 am | SUSPICIOUS VEHICLE | |
| 26-0809395 | 371 FARRIS RD | August 30, 2026 9:21 am | DISTURBANCE | |
| 26-0809392 | 1155 SKYLINE DR | August 30, 2026 9:08 am | ATTEMPT TO CONTACT | |
| 26-0809390 | 30 WHITE OAK RD | August 30, 2026 8:47 am | DOMESTIC DISTURBANCE | |
| 26-0809389 | 12 WILLIAMSBURG CT | August 30, 2026 8:43 am | ASSIST FIRE | |
| 26-0809387 | 1415 CHOATE ST | August 30, 2026 8:42 am | DOMESTIC DISTURBANCE | |
| 26-0809383 | 2 WHITE OAK DR | August 30, 2026 8:35 am | AGENCY ASSIST | |
| 26-0809382 | 361 HIGHWAY 64 E | August 30, 2026 8:34 am | TRAFFIC PROBLEM-CONTROL | |
| 26-0809380 | 1106 DONAGHEY AVE | August 30, 2026 8:23 am | DOMESTIC DISTURBANCE | |
| 26-0809378 | 1105 PRAIRIE ST | August 30, 2026 8:09 am | ATTEMPT TO CONTACT | |
| 26-0809373 | 1 ODELL DR | August 30, 2026 7:44 am | HARASSING COMMUNICATIONS | |
| 26-0809369 | 799 S EAST GERMAN LN | August 30, 2026 6:15 am | ABANDONED VEHICLE | |
| 26-0809368 | 3 VISTA TRL | August 30, 2026 5:41 am | CHECK ON THE WELFARE | |
| 26-0809367 | 77 HIDDEN VALLEY DR | August 30, 2026 5:22 am | THEFT OF PROPERTY | |
| 26-0809366 | 1105 PRAIRIE ST | August 30, 2026 5:05 am | RECOVERED PROPERTY | |
| 26-0809364 | 900 CRAIN DR | August 30, 2026 3:43 am | CHECKING VEHICLE | |
| 26-0809362 | 100 CONWAY BLVD | August 30, 2026 3:27 am | CHECKING PERSON | |
| 26-0809360 | 23 WOLF RUN TRL | August 30, 2026 3:23 am | REPOSSESSION | |
| 26-0809359 | 1600 WESTLAKE DR | August 30, 2026 3:15 am | CHECKING PERSON | |
| 26-0809358 | 124 I40WB | August 30, 2026 3:15 am | ACCIDENT - PROPERTY DAMAGE | |
| 26-0809355 | 189 MOUNT PLEASANT RD | August 30, 2026 2:50 am | 911 HANGUP CALL | |
| 26-0809354 | 399 SHAW ST | August 30, 2026 2:48 am | CHECKING PERSON | |
| 26-0809349 | 15 NARANS RD | August 30, 2026 2:30 am | ATTEMPT TO CONTACT | |
| 26-0809348 | 1400 HARKRIDER ST | August 30, 2026 2:22 am | CITIZEN ASSIST | |
| 26-0809344 | 44 N BROADVIEW | August 30, 2026 2:09 am | DISTURBANCE | |
| 26-0809339 | 26-0809339 | 3200 TYLER ST | August 30, 2026 1:53 am | CHECKING PERSON |
| 26-0809338 | 545 SKYLINE DR | August 30, 2026 1:52 am | CHECKING VEHICLE | |
| 26-0809327 | 1895 E OAK ST | August 30, 2026 1:21 am | CHECKING VEHICLE | |
| 26-0809324 | 1105 PRAIRIE ST | August 30, 2026 1:09 am | FOUND PROPERTY | |
| 26-0809321 | 189 MOUNT PLEASANT RD | August 30, 2026 12:59 am | DOMESTIC DISTURBANCE | |
| 26-0809320 | 867 FENDLEY DR | August 30, 2026 12:53 am | LOUD NOISE-MUSIC | |
| 26-0809316 | 2990 BILLY JACK DR | August 30, 2026 12:40 am | DISTURBANCE | |
| 26-0809313 | 1470 ARAPAHO TRL | August 30, 2026 12:34 am | LOUD NOISE-MUSIC | |
| 26-0809312 | 1689 MIDDLE RD | August 30, 2026 12:31 am | LOUD NOISE-MUSIC | |
| 26-0809308 | 626 HIGHWAY 365 | August 30, 2026 12:19 am | CHECKING VEHICLE | |
| 26-0809306 | 3585 JAMES CT | August 30, 2026 12:06 am | ATTEMPT TO CONTACT | |
| 26-0809305 | 2490 SANDERS ST | August 30, 2026 12:04 am | CHECKING PERSON | |
| 26-0809304 | 26-0809304 | 1699 WASHINGTON AVE | August 29, 2026 11:54 pm | INTOXICATED PERSON |
| 26-0809301 | 2055 HARKRIDER ST | August 29, 2026 11:46 pm | TRESPASSING | |
| 26-0809294 | 801 HOGAN LN | August 29, 2026 11:31 pm | SHOTS FIRED | |
| 26-0809288 | 600 ELSINGER BLVD | August 29, 2026 11:16 pm | CHECKING VEHICLE | |
| 26-0809280 | 129 I40EB | August 29, 2026 10:54 pm | CHECKING VEHICLE | |
| 26-0809278 | 1208 DAVIS ST | August 29, 2026 10:46 pm | LOUD NOISE-MUSIC | |
| 26-0809273 | 4930 STOCKTON RD | August 29, 2026 10:25 pm | CHECK ON THE WELFARE | |
| 26-0809270 | 4692 DAVE WARD DR | August 29, 2026 10:20 pm | PROPERTY DAMAGE | |
| 26-0809267 | 1470 ARAPAHO TRL | August 29, 2026 10:16 pm | LOUD NOISE-MUSIC | |
| 26-0809266 | 26 CRESTVIEW RD | August 29, 2026 10:15 pm | ATTEMPT TO CONTACT | |
| 26-0809263 | 26-0809263 | 500 S GERMAN LN | August 29, 2026 10:11 pm | MISDEMEANOR WARRANT SERVICE |
| 26-0809257 | 15 NARANS RD | August 29, 2026 10:00 pm | DOMESTIC DISTURBANCE | |
| 26-0809256 | 26-0809256 | 1200 COVINGTON WAY | August 29, 2026 9:58 pm | DOMESTIC DISTURBANCE |
| 26-0809250 | 127 I40EB | August 29, 2026 9:50 pm | CHECKING PERSON | |
| 26-0809249 | 801 ELSINGER BLVD | August 29, 2026 9:50 pm | CHECKING VEHICLE | |
| 26-0809247 | 89 ASHBERRY LN | August 29, 2026 9:47 pm | DISTURBANCE | |
| 26-0809244 | 16 EVE LN | August 29, 2026 9:43 pm | AGENCY ASSIST | |
| 26-0809242 | 1299 WATKINS ST | August 29, 2026 9:41 pm | SUSPICIOUS PERSON | |
| 26-0809240 | 601 ELSINGER BLVD | August 29, 2026 9:40 pm | CHECKING VEHICLE | |
| 26-0809239 | 1200 COVINGTON WAY | August 29, 2026 9:39 pm | SUSPICIOUS PERSON | |
| 26-0809238 | 26-0809238 | 2055 HARKRIDER ST | August 29, 2026 9:38 pm | ASSIST FIRE |
| 26-0809232 | 2299 DAVE WARD DR | August 29, 2026 9:26 pm | ACCIDENT - PROPERTY DAMAGE | |
| 26-0809230 | 455 LOLLIE RD | August 29, 2026 9:24 pm | PROPERTY DAMAGE | |
| 26-0809228 | 2 WHISPERING OAKS | August 29, 2026 9:23 pm | DISTURBANCE | |
| 26-0809226 | 50 GREGORY DR | August 29, 2026 9:18 pm | CHECK ON THE WELFARE | |
| 26-0809224 | 22 STUDENT LN | August 29, 2026 9:16 pm | DISTURBANCE | |
| 26-0809223 | 600 5TH AVE | August 29, 2026 9:15 pm | LOUD NOISE-MUSIC | |
| 26-0809217 | 1470 ARAPAHO TRL | August 29, 2026 9:04 pm | LOUD NOISE-MUSIC | |
| 26-0809216 | 800 DAVE WARD DR | August 29, 2026 9:03 pm | RECKLESS DRIVER | |
| 26-0809214 | 415 S CENTER ST | August 29, 2026 9:01 pm | TRESPASSING | |
| 26-0809213 | 600 DAVE WARD DR | August 29, 2026 8:56 pm | STALLED VEHICLE | |
| 26-0809212 | 97 SOLOMON GROVE RD | August 29, 2026 8:54 pm | MISSING PERSON | |
| 26-0809210 | 1 NORTH AVE | August 29, 2026 8:31 pm | SHOTS FIRED | |
| 26-0809209 | 1620 WESTLAKE DR | August 29, 2026 8:30 pm | CHECK ON THE WELFARE | |
| 26-0809208 | 24 OAK BOWERY RD | August 29, 2026 8:30 pm | SHOTS FIRED | |
| 26-0809207 | 250 CENTRAL LANDING BLVD | August 29, 2026 8:30 pm | ATTEMPT TO CONTACT | |
| 26-0809206 | 1640 E OAK ST | August 29, 2026 8:30 pm | UNKNOWN TROUBLE | |
| 26-0809204 | 26-0809204 | 3715 PRINCE ST | August 29, 2026 8:27 pm | THEFT OF PROPERTY |
| 26-0809203 | 2 PICKLES GAP RD | August 29, 2026 8:26 pm | TRESPASSING | |
| 26-0809201 | 1105 PRAIRIE ST | August 29, 2026 8:24 pm | SUPPLEMENT REPORT CALL | |
| 26-0809198 | 1105 PRAIRIE ST | August 29, 2026 8:21 pm | ATTEMPT TO CONTACT | |
| 26-0809196 | 400 6TH ST | August 29, 2026 8:19 pm | LOUD NOISE-MUSIC | |
| 26-0809195 | 86 GAPVIEW RD | August 29, 2026 8:18 pm | ATTEMPT TO CONTACT | |
| 26-0809186 | 1155 SKYLINE DR | August 29, 2026 7:55 pm | ATTEMPT TO CONTACT | |
| 26-0809184 | 440 HIGHWAY 107 S | August 29, 2026 7:44 pm | ASSIST FIRE | |
| 26-0809182 | 2310 RIDGEFIELD LN | August 29, 2026 7:41 pm | ATTEMPT TO CONTACT | |
| 26-0809177 | 26 PEBBLE BROOK DR | August 29, 2026 7:29 pm | CHECK ON THE WELFARE | |
| 26-0809172 | 33 E MAIN ST | August 29, 2026 7:17 pm | ATTEMPT TO CONTACT | |
| 26-0809171 | 2716 TIMBERPEG CT | August 29, 2026 7:16 pm | HARASSING COMMUNICATIONS | |
| 26-0809170 | 12 LAURA DR | August 29, 2026 7:06 pm | SHOTS FIRED | |
| 26-0809169 | 1208 DAVIS ST | August 29, 2026 7:05 pm | LOUD NOISE-MUSIC | |
| 26-0809167 | 323 S CENTER ST | August 29, 2026 6:57 pm | DOMESTIC DISTURBANCE | |
| 26-0809165 | 1520 E DAVE WARD DR | August 29, 2026 6:48 pm | ACCIDENT - PROPERTY DAMAGE | |
| 26-0809164 | 13 ROSEMOUNT DR | August 29, 2026 6:45 pm | LOUD NOISE-MUSIC | |
| 26-0809162 | 136 APPLEYARD RD | August 29, 2026 6:40 pm | ATTEMPT TO CONTACT | |
| 26-0809161 | 555 HIGHWAY 365 | August 29, 2026 6:37 pm | AGENCY ASSIST | |
| 26-0809159 | 2550 PRINCE ST | August 29, 2026 6:31 pm | STALLED VEHICLE | |
| 26-0809158 | 1305 DAVE WARD DR | August 29, 2026 6:28 pm | TRESPASSING | |
| 26-0809156 | 1155 SKYLINE DR | August 29, 2026 6:27 pm | PARKING VIOLATION | |
| 26-0809154 | 26-0809154 | 250 CENTRAL LANDING BLVD | August 29, 2026 6:09 pm | BATTERY REPORT |
| 26-0809152 | 26-0809152 | 3045 PEBBLE BEACH DR | August 29, 2026 6:04 pm | FRAUD |
| 26-0809151 | 705 4TH ST | August 29, 2026 6:03 pm | CHECK ON THE WELFARE | |
| 26-0809149 | 112 PICKLES GAP RD | August 29, 2026 5:55 pm | ACCIDENT - PROPERTY DAMAGE | |
| 26-0809148 | 26-0809148 | 899 S HARKRIDER DR | August 29, 2026 5:53 pm | INTOXICATED PERSON |
| 26-0809147 | 1250 E DAVE WARD DR | August 29, 2026 5:52 pm | ACCIDENT - PROPERTY DAMAGE | |
| 26-0809145 | 1250 S AMITY RD | August 29, 2026 5:42 pm | CHECK ON THE WELFARE | |
| 26-0809143 | 26-0809143 | 1155 SKYLINE DR | August 29, 2026 5:28 pm | SHOPLIFTING |
| 26-0809141 | 2010 RICH SMITH LN | August 29, 2026 5:26 pm | VEHICLE TOW | |
| 26-0809140 | 1155 SKYLINE DR | August 29, 2026 5:23 pm | CHECK ON THE WELFARE | |
| 26-0809139 | 45 SUNNY GAP RD | August 29, 2026 5:23 pm | ORDINANCE VIOLATION | |
| 26-0809137 | 3081 NAPA VALLEY DR | August 29, 2026 5:08 pm | DOMESTIC DISTURBANCE | |
| 26-0809133 | 8 LUCKY DR | August 29, 2026 4:50 pm | DOMESTIC DISTURBANCE | |
| 26-0809132 | 26-0809132 | 2015 RICH SMITH LN | August 29, 2026 4:28 pm | CRIMINAL MISCHIEF |
| 26-0809128 | 475 ROBINS ST | August 29, 2026 4:15 pm | CHECK ON THE WELFARE | |
| 26-0809125 | 1773 HIGHWAY 64 E | August 29, 2026 4:13 pm | ACCIDENT - PERSONAL INJURY | |
| 26-0809124 | 1408 HIGHWAY 36 | August 29, 2026 4:11 pm | ATTEMPT TO CONTACT | |
| 26-0809122 | 801 LOCUST AVE | August 29, 2026 4:03 pm | ATTEMPT TO CONTACT | |
| 26-0809121 | 11 SPRINGHILL DR | August 29, 2026 4:00 pm | ATTEMPT TO CONTACT | |
| 26-0809120 | 700 SKYLINE DR | August 29, 2026 3:46 pm | CRIMINAL MISCHIEF | |
| 26-0809118 | 1001 COLLEGE AVE | August 29, 2026 3:44 pm | ACCIDENT - PROPERTY DAMAGE | |
| 26-0809115 | 801 LOCUST AVE | August 29, 2026 3:32 pm | ATTEMPT TO CONTACT | |
| 26-0809113 | 2499 CHARLIE DAYER DR | August 29, 2026 3:28 pm | CRIMINAL MISCHIEF | |
| 26-0809112 | 655 ELSINGER BLVD | August 29, 2026 3:28 pm | ACCIDENT - PRIVATE PROPERTY | |
| 26-0809108 | 1105 PRAIRIE ST | August 29, 2026 3:18 pm | MISSING PERSON | |
| 26-0809107 | 6 N BROADVIEW | August 29, 2026 3:15 pm | RECKLESS DRIVER | |
| 26-0809106 | 1600 E OAK ST | August 29, 2026 3:13 pm | RECKLESS DRIVER | |
| 26-0809105 | 281 PICKWICKET DR | August 29, 2026 3:12 pm | ATTEMPT TO CONTACT | |
| 26-0809104 | 199 E OAK ST | August 29, 2026 3:04 pm | ACCIDENT - PROPERTY DAMAGE | |
| 26-0809103 | 1555 EXCHANGE AVE | August 29, 2026 2:47 pm | ATTEMPT TO CONTACT | |
| 26-0809101 | 2899 DAVE WARD DR | August 29, 2026 2:42 pm | CHECK ON THE WELFARE | |
| 26-0809098 | 30 WHITE OAK RD | August 29, 2026 2:36 pm | ATTEMPT TO CONTACT | |
| 26-0809097 | 703 GROVE ST | August 29, 2026 2:35 pm | ATTEMPT TO CONTACT | |
| 26-0809093 | 1199 S AMITY RD | August 29, 2026 2:21 pm | ACCIDENT - HIT AND RUN | |
| 26-0809090 | 1170 PATS LN | August 29, 2026 2:06 pm | ATTEMPT TO CONTACT | |
| 26-0809089 | 26-0809089 | 3435 BLACKSMITH DR | August 29, 2026 2:04 pm | DOMESTIC DISTURBANCE |
| 26-0809084 | 1179 SKYLINE DR | August 29, 2026 1:59 pm | RECKLESS DRIVER | |
| 26-0809081 | 708 OAK ST | August 29, 2026 1:55 pm | ACCIDENT - PRIVATE PROPERTY | |
| 26-0809075 | 1515 BEAN ST | August 29, 2026 1:21 pm | UNKNOWN TROUBLE | |
| 26-0809074 | 14 PEBBLE BROOK DR | August 29, 2026 1:20 pm | ACCIDENT - PROPERTY DAMAGE | |
| 26-0809073 | 26-0809073 | 1933 COLLEGE AVE | August 29, 2026 1:17 pm | HARASSMENT |
| 26-0809068 | 1620 HIGHPOINT DR | August 29, 2026 12:52 pm | CHECKING VEHICLE | |
| 26-0809067 | 3955 RUPERT DR | August 29, 2026 12:41 pm | ATTEMPT TO CONTACT | |
| 26-0809066 | 1390 OLD MORRILTON HIGHWAY | August 29, 2026 12:39 pm | THEFT OF PROPERTY | |
| 26-0809065 | 808 FRONT ST | August 29, 2026 12:11 pm | ACCIDENT - PRIVATE PROPERTY | |
| 26-0809064 | 1105 PRAIRIE ST | August 29, 2026 12:07 pm | SUPPLEMENT REPORT CALL | |
| 26-0809063 | 8 HENRY LOOP | August 29, 2026 12:04 pm | ATTEMPT TO CONTACT | |
| 26-0809062 | 1170 PATS LN | August 29, 2026 12:04 pm | SUPPLEMENT REPORT CALL | |
| 26-0809060 | 1250 E DAVE WARD DR | August 29, 2026 11:51 am | ACCIDENT - PROPERTY DAMAGE | |
| 26-0809059 | 2 OVERLOOK TRL | August 29, 2026 11:47 am | TRAFFIC PROBLEM-CONTROL | |
| 26-0809056 | 835 S DONAGHEY AVE | August 29, 2026 11:37 am | ACCIDENT - PRIVATE PROPERTY | |
| 26-0809053 | 1050 ELLIS AVE | August 29, 2026 11:23 am | TRAFFIC PROBLEM-CONTROL | |
| 26-0809050 | 26-0809050 | 3100 IRBY DR | August 29, 2026 10:59 am | BREAKING OR ENTERING |
| 26-0809046 | 1266 S AMITY RD | August 29, 2026 10:43 am | FRAUD | |
| 26-0809045 | 1030 SKYLINE DR | August 29, 2026 10:41 am | ACCIDENT - PROPERTY DAMAGE | |
| 26-0809038 | 849 SKYLINE DR | August 29, 2026 10:20 am | ATTEMPT TO CONTACT | |
| 26-0809032 | 361 MOUNT NEBO RD | August 29, 2026 10:00 am | DOMESTIC DISTURBANCE | |
| 26-0809030 | 2215 LOOKOUT AVE | August 29, 2026 9:49 am | CIVIL MATTER | |
| 26-0809029 | 1709 HARDY ST | August 29, 2026 9:48 am | LOUD NOISE-MUSIC | |
| 26-0809027 | 1501 ROBINS ST | August 29, 2026 9:44 am | ATTEMPT TO CONTACT | |
| 26-0809026 | 1090 SKYLINE DR | August 29, 2026 9:40 am | ASSIST FIRE | |
| 26-0809025 | 801 LOCUST AVE | August 29, 2026 9:39 am | ATTEMPT TO CONTACT | |
| 26-0809023 | 26-0809023 | 600 SKYLINE DR | August 29, 2026 9:34 am | NO CONTACT ORDER VIOLATION |
| 26-0809022 | 284 HIGHWAY 365 | August 29, 2026 9:34 am | DISTURBANCE | |
| 26-0809013 | 252 ROCKY POINT RD | August 29, 2026 8:30 am | CHECK ON THE WELFARE | |
| 26-0809009 | 211 GARLAND SPRINGS RD | August 29, 2026 8:18 am | SUSPICIOUS ACTIVITY | |
| 26-0809005 | 1105 SKYLINE DR | August 29, 2026 8:08 am | CHECK ON THE WELFARE | |
| 26-0809004 | 620 2ND ST | August 29, 2026 7:51 am | UNKNOWN TROUBLE | |
| 26-0809002 | 9 RIDGE LN | August 29, 2026 7:44 am | DOMESTIC DISTURBANCE | |
| 26-0809001 | 8 COVEWOOD DR | August 29, 2026 7:34 am | REPOSSESSION | |
| 26-0808993 | 1773 HIGHWAY 64 E | August 29, 2026 5:38 am | ACCIDENT - PERSONAL INJURY | |
| 26-0808989 | 26-0808989 | 3815 DONNELL RIDGE RD | August 29, 2026 4:20 am | DOMESTIC DISTURBANCE |
| 26-0808987 | 3815 DONNELL RIDGE RD | August 29, 2026 3:46 am | CHECKING VEHICLE | |
| 26-0808984 | 73 BRANDON DR | August 29, 2026 3:09 am | SUSPICIOUS ACTIVITY | |
| 26-0808983 | 1399 OLD MILITARY RD | August 29, 2026 3:09 am | CHECKING VEHICLE | |
| 26-0808981 | 4095 PRINCE ST | August 29, 2026 2:51 am | CHECKING VEHICLE | |
| 26-0808979 | 3430 IRBY DR | August 29, 2026 2:33 am | CHECKING VEHICLE | |
| 26-0808976 | 9 HANFORD LN | August 29, 2026 1:52 am | AGENCY ASSIST | |
| 26-0808972 | 1150 WINFIELD ST | August 29, 2026 1:28 am | CHECK ON THE WELFARE | |
| 26-0808970 | 801 ELSINGER BLVD | August 29, 2026 1:13 am | ATTEMPT TO CONTACT | |
| 26-0808966 | 399 DENISON ST | August 29, 2026 1:06 am | PARKING VIOLATION | |
| 26-0808964 | 375 DENISON ST | August 29, 2026 1:05 am | LOUD NOISE-MUSIC | |
| 26-0808963 | 3815 DONNELL RIDGE RD | August 29, 2026 1:02 am | CHECK ON THE WELFARE | |
| 26-0808962 | 140 CHAPEL CREEK DR | August 29, 2026 12:58 am | CHECK ON THE WELFARE | |
| 26-0808961 | 375 DENISON ST | August 29, 2026 12:53 am | LOUD NOISE-MUSIC | |
| 26-0808959 | 530 S DONAGHEY AVE | August 29, 2026 12:44 am | HARASSMENT | |
| 26-0808957 | 550 SKYLINE DR | August 29, 2026 12:35 am | CHECK ON THE WELFARE | |
| 26-0808956 | 1025 ROCKWELL DR | August 29, 2026 12:35 am | DOMESTIC DISTURBANCE | |
| 26-0808951 | 3555 TUSCARORA DR | August 29, 2026 12:11 am | SUSPICIOUS ACTIVITY | |
| 26-0808950 | 8 HENRY LOOP | August 29, 2026 12:09 am | ATTEMPT TO CONTACT | |
| 26-0808947 | 160 CHAPEL CREEK DR | August 29, 2026 12:02 am | LOUD NOISE-MUSIC | |
| 26-0808946 | 1953 TORREYSON ST | August 28, 2026 11:59 pm | LOUD NOISE-MUSIC | |
| 26-0808945 | 93 CARROLL RD | August 28, 2026 11:56 pm | SHOTS FIRED | |
| 26-0808943 | 810 E SIEBENMORGEN RD | August 28, 2026 11:50 pm | STALLED VEHICLE | |
| 26-0808942 | 399 HIGHWAY 89 S | August 28, 2026 11:49 pm | CHECKING VEHICLE | |
| 26-0808938 | 130 I40EB | August 28, 2026 11:34 pm | TRAFFIC PROBLEM-CONTROL | |
| 26-0808934 | 12 WHITE OAK DR | August 28, 2026 11:19 pm | UNKNOWN TROUBLE | |
| 26-0808933 | 2099 COLLEGE AVE | August 28, 2026 11:16 pm | LOUD NOISE-MUSIC | |
| 26-0808929 | 1895 E OAK ST | August 28, 2026 11:12 pm | CHECKING VEHICLE | |
| 26-0808927 | 2840 DAVE WARD DR | August 28, 2026 11:06 pm | CHECKING PERSON | |
| 26-0808924 | 400 SALEM RD | August 28, 2026 10:48 pm | ACCIDENT - HIT AND RUN | |
| 26-0808922 | 6165 DAVE WARD DR | August 28, 2026 10:45 pm | CHECKING VEHICLE | |
| 26-0808921 | 12 LOWER RIDGE RD | August 28, 2026 10:43 pm | CHECKING PERSON | |
| 26-0808912 | 2890 DAVE WARD DR | August 28, 2026 10:20 pm | CHECKING VEHICLE | |
| 26-0808911 | 268 HIGHWAY 65 N | August 28, 2026 10:19 pm | SUSPICIOUS PERSON | |
| 26-0808904 | 1 MAYOR LN | August 28, 2026 10:04 pm | ACCIDENT - PROPERTY DAMAGE | |
| 26-0808900 | 1201 DONAGHEY AVE | August 28, 2026 10:00 pm | CHECKING VEHICLE | |
| 26-0808896 | 1105 PRAIRIE ST | August 28, 2026 9:53 pm | ATTEMPT TO CONTACT | |
| 26-0808895 | 26-0808895 | 2490 SANDERS ST | August 28, 2026 9:50 pm | TRESPASSING |
| 26-0808879 | 1440 DAVE WARD DR | August 28, 2026 9:13 pm | CHECKING PERSON | |
| 26-0808878 | 600 GRANDVIEW HEIGHTS DR | August 28, 2026 9:07 pm | CHECK ON THE WELFARE | |
| 26-0808874 | 601 ELSINGER BLVD | August 28, 2026 8:55 pm | LOITERING | |
| 26-0808873 | 1 HIGHWAY 36 | August 28, 2026 8:49 pm | RECKLESS DRIVER | |
| 26-0808872 | 17 N MADRID DR | August 28, 2026 8:49 pm | ATTEMPT TO CONTACT | |
| 26-0808870 | 2199 PRINCE ST | August 28, 2026 8:48 pm | RECKLESS DRIVER | |
| 26-0808864 | 1352 WATKINS ST | August 28, 2026 8:33 pm | ATTEMPT TO CONTACT | |
| 26-0808863 | 2695 DAVE WARD DR | August 28, 2026 8:33 pm | CIVIL STAND BY | |
| 26-0808861 | 173 HIGHWAY 365 | August 28, 2026 8:29 pm | CHECKING VEHICLE | |
| 26-0808859 | 26-0808859 | 3900 DAVE WARD DR | August 28, 2026 8:28 pm | FOUND PROPERTY |
| 26-0808853 | 26-0808853 | 1305 E OAK ST | August 28, 2026 8:10 pm | CHECKING PERSON |
| 26-0808850 | 1405 S DONAGHEY AVE | August 28, 2026 8:04 pm | CHECKING VEHICLE | |
| 26-0808845 | 26-0808845 | 1032 CLIFTON ST | August 28, 2026 7:50 pm | BREAKING OR ENTERING |
| 26-0808844 | 601 ELSINGER BLVD | August 28, 2026 7:49 pm | RECKLESS DRIVER | |
| 26-0808843 | 1430 STORIE DR | August 28, 2026 7:48 pm | RECKLESS DRIVER | |
| 26-0808839 | 1105 PRAIRIE ST | August 28, 2026 7:41 pm | ATTEMPT TO CONTACT | |
| 26-0808838 | 419 E OAK ST | August 28, 2026 7:39 pm | STALLED VEHICLE | |
| 26-0808836 | 475 ROBINS ST | August 28, 2026 7:04 pm | ACCIDENT - PRIVATE PROPERTY | |
| 26-0808834 | 200 EXCHANGE AVE | August 28, 2026 7:03 pm | OPEN DOOR/WINDOW/FENCE | |
| 26-0808831 | 77 HEFFINGTON CEMETERY RD | August 28, 2026 6:57 pm | ATTEMPT TO CONTACT | |
| 26-0808830 | 1155 SKYLINE DR | August 28, 2026 6:57 pm | SHOPLIFTING | |
| 26-0808828 | 899 EXCHANGE AVE | August 28, 2026 6:44 pm | ACCIDENT - PROPERTY DAMAGE | |
| 26-0808826 | 1710 S AMITY RD | August 28, 2026 6:40 pm | FOUND PROPERTY | |
| 26-0808825 | 39 YOUNG LN | August 28, 2026 6:31 pm | DOMESTIC DISTURBANCE | |
| 26-0808822 | 3250 JW AND PAT BROWN BLVD | August 28, 2026 6:25 pm | CHECKING VEHICLE | |
| 26-0808821 | 3289 OLD MORRILTON HIGHWAY | August 28, 2026 6:23 pm | ABANDONED VEHICLE | |
| 26-0808816 | 101 OAK ST | August 28, 2026 6:05 pm | SUSPICIOUS ACTIVITY | |
| 26-0808814 | 2 EAGLE NEST CV | August 28, 2026 6:01 pm | MISSING PERSON | |
| 26-0808812 | 1570 SAGEGRASS RD | August 28, 2026 5:54 pm | CIVIL STAND BY | |
| 26-0808808 | 515 E 6TH ST | August 28, 2026 5:42 pm | ACCIDENT - PROPERTY DAMAGE | |
| 26-0808803 | 2695 DAVE WARD DR | August 28, 2026 5:19 pm | TRESPASSING | |
| 26-0808801 | 1090 SKYLINE DR | August 28, 2026 5:15 pm | DISTURBANCE | |
| 26-0808800 | 135 I40EB | August 28, 2026 5:14 pm | TRAFFIC PROBLEM-CONTROL | |
| 26-0808799 | 1075 GALLERY DR | August 28, 2026 4:58 pm | SUSPICIOUS VEHICLE | |
| 26-0808794 | 1199 STEEL AVE | August 28, 2026 4:40 pm | ACCIDENT - PROPERTY DAMAGE | |
| 26-0808792 | 1 TERRACONWAY DR | August 28, 2026 4:26 pm | ACCIDENT - PROPERTY DAMAGE | |
| 26-0808791 | 801 LOCUST AVE | August 28, 2026 4:24 pm | AGENCY ASSIST | |
| 26-0808790 | 1065 WINEBERRY RD | August 28, 2026 4:18 pm | HARASSING COMMUNICATIONS | |
| 26-0808787 | 999 EAST GERMAN LN | August 28, 2026 4:18 pm | STALLED VEHICLE | |
| 26-0808784 | 26-0808784 | 2550 PRINCE ST | August 28, 2026 4:03 pm | SHOPLIFTING |
| 26-0808781 | 2899 TYLER ST | August 28, 2026 4:00 pm | ACCIDENT - PERSONAL INJURY | |
| 26-0808779 | 1799 CALDWELL ST | August 28, 2026 3:53 pm | RECKLESS DRIVER | |
| 26-0808778 | 1199 E DAVE WARD DR | August 28, 2026 3:50 pm | ACCIDENT - PROPERTY DAMAGE | |
| 26-0808776 | 1965 CLARK'S DR | August 28, 2026 3:48 pm | ATTEMPT TO CONTACT | |
| 26-0808774 | 3196 COLLEGE AVE | August 28, 2026 3:43 pm | ACCIDENT - PROPERTY DAMAGE | |
| 26-0808772 | 620 INGRAM VILLAGE DR | August 28, 2026 3:40 pm | SUSPICIOUS ACTIVITY | |
| 26-0808769 | 26-0808769 | 501 2ND AVE | August 28, 2026 3:34 pm | ATTEMPT TO CONTACT |
| 26-0808766 | 74 LEONARD LOOP | August 28, 2026 3:27 pm | ATTEMPT TO CONTACT | |
| 26-0808764 | 39 FOOTHILL DR | August 28, 2026 3:22 pm | AGENCY ASSIST | |
| 26-0808761 | 2420 MORSE DR | August 28, 2026 3:12 pm | SUPPLEMENT REPORT CALL | |
| 26-0808757 | 125 CENTER ST | August 28, 2026 3:10 pm | ENDANGERING WELFARE OF MINOR | |
| 26-0808753 | 403 HIGHWAY 64 E | August 28, 2026 2:56 pm | STALLED VEHICLE | |
| 26-0808752 | 150 SKYLINE DR | August 28, 2026 2:49 pm | DOMESTIC DISTURBANCE | |
| 26-0808751 | 600 5TH AVE | August 28, 2026 2:46 pm | SUSPICIOUS ACTIVITY | |
| 26-0808746 | 1525 CLIFTON ST | August 28, 2026 2:34 pm | CIVIL MATTER | |
| 26-0808745 | 26-0808745 | 955 S GERMAN LN | August 28, 2026 2:34 pm | ATTEMPT TO CONTACT |
| 26-0808743 | 26-0808743 | 421 1ST AVE | August 28, 2026 2:26 pm | ATTEMPT TO CONTACT |
| 26-0808742 | 801 LOCUST AVE | August 28, 2026 2:14 pm | AGENCY ASSIST | |
| 26-0808739 | 1301 E DAVE WARD DR | August 28, 2026 2:01 pm | CITIZEN ASSIST | |
| 26-0808738 | 68 HIGHWAY 36 | August 28, 2026 1:55 pm | ATTEMPT TO CONTACT | |
| 26-0808737 | 2302 COLLEGE AVE | August 28, 2026 1:50 pm | ACCIDENT - PRIVATE PROPERTY | |
| 26-0808734 | 913 FRONT ST | August 28, 2026 1:46 pm | ATTEMPT TO CONTACT | |
| 26-0808732 | 32 SAGEWOOD DR | August 28, 2026 1:35 pm | BREAKING OR ENTERING | |
| 26-0808731 | 913 FRONT ST | August 28, 2026 1:25 pm | HARASSING COMMUNICATIONS | |
| 26-0808729 | 3430 IRBY DR | August 28, 2026 1:14 pm | CHECK ON THE WELFARE | |
| 26-0808726 | 26-0808726 | 3430 IRBY DR | August 28, 2026 1:11 pm | HARASSMENT |
| 26-0808725 | 600 EXPO BLVD | August 28, 2026 12:46 pm | ACCIDENT - HIT AND RUN | |
| 26-0808724 | 1399 DONAGHEY AVE | August 28, 2026 12:41 pm | CHECKING PERSON | |
| 26-0808719 | 299 SPRINGFIELD RD | August 28, 2026 12:33 pm | CHECKING VEHICLE | |
| 26-0808717 | 26-0808717 | 2200 WASHINGTON AVE | August 28, 2026 12:30 pm | CHECKING PERSON |
| 26-0808716 | 1105 PRAIRIE ST | August 28, 2026 12:27 pm | ATTEMPT TO CONTACT | |
| 26-0808714 | 650 DAVE WARD DR | August 28, 2026 12:25 pm | ACCIDENT - PROPERTY DAMAGE | |
| 26-0808713 | 899 MILL ST | August 28, 2026 12:04 pm | ACCIDENT - PROPERTY DAMAGE | |
| 26-0808712 | 1124 CLIFTON ST | August 28, 2026 11:59 am | AGENCY ASSIST | |
| 26-0808710 | 135 I40WB | August 28, 2026 11:43 am | RECKLESS DRIVER | |
| 26-0808709 | 2661 DONAGHEY AVE | August 28, 2026 11:41 am | STALLED VEHICLE | |
| 26-0808707 | 495 HOGAN LN | August 28, 2026 11:40 am | ACCIDENT - PERSONAL INJURY | |
| 26-0808705 | 3289 OLD MORRILTON HIGHWAY | August 28, 2026 11:38 am | ABANDONED VEHICLE | |
| 26-0808704 | 26-0808704 | 949 SKYLINE DR | August 28, 2026 11:36 am | CHECKING PERSON |
| 26-0808703 | 200 S HARKRIDER DR | August 28, 2026 11:34 am | FOUND PROPERTY | |
| 26-0808702 | 1 ARKAVALLEY RD | August 28, 2026 11:31 am | RECKLESS DRIVER | |
| 26-0808701 | 26-0808701 | 820 BILL DEAN DR | August 28, 2026 11:30 am | THEFT OF VEHICLE |
| 26-0808698 | 1 PLANTATION DR | August 28, 2026 11:22 am | RECKLESS DRIVER | |
| 26-0808696 | 2109 E OAK ST | August 28, 2026 11:01 am | ACCIDENT - PROPERTY DAMAGE | |
| 26-0808695 | 1555 EXCHANGE AVE | August 28, 2026 10:57 am | CHECK ON THE WELFARE | |
| 26-0808694 | 26-0808694 | 80 EXCHANGE AVE | August 28, 2026 10:55 am | THEFT OF PROPERTY |
| 26-0808693 | 132 I40WB | August 28, 2026 10:48 am | RECKLESS DRIVER | |
| 26-0808692 | 127 BALLARD RD | August 28, 2026 10:48 am | CIVIL STAND BY | |
| 26-0808689 | 1145 HUNTER ST | August 28, 2026 10:42 am | ACCIDENT - PERSONAL INJURY | |
| 26-0808687 | 1869 HUTTO ST | August 28, 2026 10:39 am | CITIZEN ASSIST | |
| 26-0808685 | 26-0808685 | 1200 THOMAS G WILSON DR | August 28, 2026 10:34 am | PROPERTY DAMAGE |
| 26-0808681 | 26-0808681 | 3815 DONNELL RIDGE RD | August 28, 2026 10:16 am | TERRORISTIC THREATENING |
| 26-0808679 | 127 I40EB | August 28, 2026 10:13 am | CHECKING PERSON | |
| 26-0808678 | 700 SKYLINE DR | August 28, 2026 10:03 am | ATTEMPT TO CONTACT | |
| 26-0808676 | 5021 TYLER ST | August 28, 2026 9:59 am | CITIZEN ASSIST | |
| 26-0808675 | 125 I40WB | August 28, 2026 9:54 am | AGENCY ASSIST | |
| 26-0808674 | 5599 TYLER ST | August 28, 2026 9:54 am | CHECKING PERSON | |
| 26-0808673 | 2235 DAVE WARD DR | August 28, 2026 9:53 am | ATTEMPT TO CONTACT | |
| 26-0808672 | 125 I40EB | August 28, 2026 9:49 am | AGENCY ASSIST | |
| 26-0808670 | 225 VINE ST | August 28, 2026 9:46 am | ASSAULT | |
| 26-0808667 | 1105 PRAIRIE ST | August 28, 2026 9:42 am | ATTEMPT TO CONTACT | |
| 26-0808665 | 2085 KEATHLEY DR | August 28, 2026 9:29 am | AGENCY ASSIST | |
| 26-0808663 | 2070 KEATHLEY DR | August 28, 2026 9:23 am | AGENCY ASSIST | |
| 26-0808660 | 452 STURGIS RD | August 28, 2026 9:15 am | ILLEGAL DUMPING | |
| 26-0808659 | 324 S GERMAN LN | August 28, 2026 9:11 am | AGENCY ASSIST | |
| 26-0808657 | 26-0808657 | 670 S HOGAN LN | August 28, 2026 8:59 am | TERRORISTIC THREATENING |
| 26-0808656 | 7 CHESTER CV | August 28, 2026 8:57 am | ATTEMPT TO CONTACT | |
| 26-0808655 | 801 LOCUST AVE | August 28, 2026 8:56 am | ATTEMPT TO CONTACT | |
| 26-0808653 | 5 7TH ST | August 28, 2026 8:54 am | ATTEMPT TO CONTACT | |
| 26-0808652 | 26-0808652 | 1 STUDENT LN | August 28, 2026 8:54 am | ATTEMPT TO CONTACT |
| 26-0808649 | 300 S DONAGHEY AVE | August 28, 2026 8:42 am | ATTEMPT TO CONTACT | |
| 26-0808648 | 152 NIAGRA FALLS | August 28, 2026 8:42 am | REPOSSESSION | |
| 26-0808647 | 960 LOCUST AVE | August 28, 2026 8:41 am | HARASSING COMMUNICATIONS | |
| 26-0808645 | 26-0808645 | 1440 BYRON DR | August 28, 2026 8:36 am | FRAUD |
| 26-0808642 | 1600 BILL LUCY DR | August 28, 2026 8:02 am | CITIZEN ASSIST | |
| 26-0808640 | 26-0808640 | 1410 HARTJE LN | August 28, 2026 7:57 am | DOMESTIC DISTURBANCE |
| 26-0808637 | 1109 E OAK ST | August 28, 2026 7:55 am | TRAFFIC LIGHT PROBLEM | |
| 26-0808634 | 29 LIBERTY CREEK RD | August 28, 2026 7:30 am | SUSPICIOUS ACTIVITY | |
| 26-0808632 | 14 SCENIC PT | August 28, 2026 7:24 am | ABANDONED VEHICLE | |
| 26-0808630 | 2 QUALLS RD | August 28, 2026 7:18 am | ATTEMPT TO CONTACT | |
| 26-0808627 | 26-0808627 | 3815 DONNELL RIDGE RD | August 28, 2026 6:45 am | RUNAWAY |
| 26-0808619 | 272 LINDER RD | August 28, 2026 5:30 am | ATTEMPT TO CONTACT | |
| 26-0808618 | 1169 E DAVE WARD DR | August 28, 2026 5:22 am | ACCIDENT - PROPERTY DAMAGE | |
| 26-0808615 | 128 I40EB | August 28, 2026 4:36 am | ACCIDENT - PROPERTY DAMAGE | |
| 26-0808612 | 801 LOCUST AVE | August 28, 2026 4:04 am | ATTEMPT TO CONTACT | |
| 26-0808608 | 239 HIGHWAY 287 | August 28, 2026 3:38 am | PURSUIT | |
| 26-0808607 | 26-0808607 | 2302 COLLEGE AVE | August 28, 2026 2:48 am | ASSAULT |
| 26-0808605 | 2890 DAVE WARD DR | August 28, 2026 2:30 am | LOUD NOISE-MUSIC | |
| 26-0808604 | 46 N MADRID DR | August 28, 2026 2:15 am | 911 HANGUP CALL | |
| 26-0808602 | 309 MILL POND RD | August 28, 2026 1:50 am | CHECK ON THE WELFARE | |
| 26-0808600 | 308 HELEN ST | August 28, 2026 12:53 am | HARASSING COMMUNICATIONS | |
| 26-0808599 | 545 SKYLINE DR | August 28, 2026 12:53 am | CITIZEN ASSIST | |
| 26-0808596 | 1516 CALDWELL ST | August 28, 2026 12:45 am | ATTEMPT TO CONTACT | |
| 26-0808594 | 77 FLAG POND RD | August 28, 2026 12:14 am | PROWLER | |
| 26-0808593 | 1025 ROCKWELL DR | August 28, 2026 12:12 am | ASSIST FIRE | |
| 26-0808591 | 1002 SAMANTHA DR | August 28, 2026 12:03 am | STALLED VEHICLE | |
| 26-0808590 | 2260 SANDERS ST | August 27, 2026 11:47 pm | ACCIDENT - PRIVATE PROPERTY | |
| 26-0808589 | 15 EVELYN LN | August 27, 2026 11:46 pm | DOMESTIC DISTURBANCE | |
| 26-0808588 | 2310 ROBINSON AVE | August 27, 2026 11:32 pm | LOG VEHICLE | |
| 26-0808587 | 1105 PRAIRIE ST | August 27, 2026 11:29 pm | ATTEMPT TO CONTACT | |
| 26-0808585 | 2310 ROBINSON AVE | August 27, 2026 11:23 pm | CHECKING VEHICLE | |
| 26-0808577 | 3100 IRBY DR | August 27, 2026 10:52 pm | DOMESTIC DISTURBANCE | |
| 26-0808574 | 619 5TH AVE | August 27, 2026 10:48 pm | CITIZEN ASSIST | |
| 26-0808571 | 835 S DONAGHEY AVE | August 27, 2026 10:31 pm | VEHICLE TOW | |
| 26-0808569 | 835 S DONAGHEY AVE | August 27, 2026 10:29 pm | VEHICLE TOW | |
| 26-0808568 | 4629 OLD MORRILTON HIGHWAY | August 27, 2026 10:26 pm | 911 HANGUP CALL | |
| 26-0808567 | 2840 DAVE WARD DR | August 27, 2026 10:21 pm | ATTEMPT TO CONTACT | |
| 26-0808565 | 260 HIGHWAY 25 N | August 27, 2026 10:12 pm | 911 HANGUP CALL | |
| 26-0808564 | 1979 BLACKBERRY LN | August 27, 2026 9:57 pm | AGENCY ASSIST | |
| 26-0808560 | 2730 DAVE WARD DR | August 27, 2026 9:50 pm | SUSPICIOUS ACTIVITY | |
| 26-0808556 | 801 LOCUST AVE | August 27, 2026 9:26 pm | ATTEMPT TO CONTACT | |
| 26-0808553 | 835 S DONAGHEY AVE | August 27, 2026 9:24 pm | VEHICLE TOW | |
| 26-0808551 | 835 S DONAGHEY AVE | August 27, 2026 9:23 pm | VEHICLE TOW | |
| 26-0808550 | 3170 ROBERT OTT CIR | August 27, 2026 9:07 pm | ATTEMPT TO CONTACT | |
| 26-0808549 | 26-0808549 | 2460 SHARPE CIR | August 27, 2026 9:01 pm | ASSIST FIRE |
| 26-0808545 | 1301 CLIFTON ST | August 27, 2026 8:40 pm | ATTEMPT TO CONTACT | |
| 26-0808544 | 500 S GERMAN LN | August 27, 2026 8:39 pm | ATTEMPT TO CONTACT | |
| 26-0808543 | 35 LOST VALLEY RD | August 27, 2026 8:36 pm | DISTURBANCE | |
| 26-0808542 | 26-0808542 | 1111 MAIN ST | August 27, 2026 8:30 pm | CHECKING PERSON |
| 26-0808541 | 26-0808541 | 831 NUTTERS CHAPEL RD | August 27, 2026 8:26 pm | CHECK ON THE WELFARE |
| 26-0808534 | 1555 EXCHANGE AVE | August 27, 2026 7:56 pm | CHECK ON THE WELFARE | |
| 26-0808532 | 384 HIGHWAY 65 N | August 27, 2026 7:46 pm | RECKLESS DRIVER | |
| 26-0808531 | 7 CHESTER CV | August 27, 2026 7:45 pm | DOMESTIC DISTURBANCE | |
| 26-0808528 | 569 HIGHWAY 65 N | August 27, 2026 7:35 pm | ROAD RAGE | |
| 26-0808526 | 33 GOLD LAKE CLUB RD | August 27, 2026 7:24 pm | ATTEMPT TO CONTACT | |
| 26-0808524 | 350 E OAK ST | August 27, 2026 7:18 pm | RECKLESS DRIVER | |
| 26-0808523 | 110 E 6TH ST | August 27, 2026 7:09 pm | THEFT OF PROPERTY | |
| 26-0808522 | 400 HIGHWAY 124 W | August 27, 2026 6:56 pm | CHECK ON THE WELFARE | |
| 26-0808521 | 1304 COLLIER DR | August 27, 2026 6:54 pm | ATTEMPT TO CONTACT | |
| 26-0808517 | 26-0808517 | 500 S GERMAN LN | August 27, 2026 6:45 pm | MISDEMEANOR WARRANT SERVICE |
| 26-0808512 | 736 POLK ST | August 27, 2026 6:35 pm | ACCIDENT - PROPERTY DAMAGE | |
| 26-0808511 | 1440 DAVE WARD DR | August 27, 2026 6:24 pm | ATTEMPT TO CONTACT | |
| 26-0808510 | 1120 E OAK ST | August 27, 2026 6:20 pm | ACCIDENT - PRIVATE PROPERTY | |
| 26-0808508 | 1099 BROOKSIDE DR | August 27, 2026 6:19 pm | CHECKING VEHICLE | |
| 26-0808507 | 3170 ROBERT OTT CIR | August 27, 2026 6:15 pm | ATTEMPT TO CONTACT | |
| 26-0808506 | 1 RAGLAND DR | August 27, 2026 6:14 pm | ACCIDENT - PROPERTY DAMAGE | |
| 26-0808503 | 401 2ND ST | August 27, 2026 5:59 pm | DISTURBANCE | |
| 26-0808501 | 3405 APPOMATTOX DR | August 27, 2026 5:52 pm | ORDINANCE VIOLATION | |
| 26-0808499 | 7 CHESTER CV | August 27, 2026 5:45 pm | ATTEMPT TO CONTACT | |
| 26-0808498 | 199 COMMERCE RD | August 27, 2026 5:43 pm | STALLED VEHICLE | |
| 26-0808497 | 1003 MUSEUM RD | August 27, 2026 5:42 pm | STALLED VEHICLE | |
| 26-0808496 | 5 7TH ST | August 27, 2026 5:35 pm | ATTEMPT TO CONTACT | |
| 26-0808495 | 11 OAKDALE DR | August 27, 2026 5:35 pm | CHECKING PERSON | |
| 26-0808494 | 466 BLAIR RD | August 27, 2026 5:33 pm | CHECK ON THE WELFARE | |
| 26-0808491 | 75 S BROADVIEW | August 27, 2026 5:20 pm | ACCIDENT - PRIVATE PROPERTY | |
| 26-0808490 | 3800 HIGHWAY 25 | August 27, 2026 5:19 pm | ACCIDENT - PROPERTY DAMAGE | |
| 26-0808489 | 707 ROBINS ST | August 27, 2026 5:15 pm | ACCIDENT - PRIVATE PROPERTY | |
| 26-0808487 | 215 FARRIS RD | August 27, 2026 5:04 pm | BREAKING OR ENTERING | |
| 26-0808486 | 59 TOWER RD | August 27, 2026 5:02 pm | ROAD RAGE | |
| 26-0808484 | 1030 SKYLINE DR | August 27, 2026 4:51 pm | ACCIDENT - PROPERTY DAMAGE | |
| 26-0808483 | 26-0808483 | 1355 S HARKRIDER DR | August 27, 2026 4:48 pm | THEFT OF PROPERTY |
| 26-0808482 | 1100 OLD MORRILTON HIGHWAY | August 27, 2026 4:43 pm | CHECK ON THE WELFARE | |
| 26-0808479 | 1105 PRAIRIE ST | August 27, 2026 4:36 pm | ATTEMPT TO CONTACT | |
| 26-0808478 | 280 LINDER RD | August 27, 2026 4:35 pm | SUSPICIOUS VEHICLE | |
| 26-0808477 | 1555 EXCHANGE AVE | August 27, 2026 4:34 pm | AGENCY ASSIST | |
| 26-0808476 | 127 I40WB | August 27, 2026 4:26 pm | CHECK ON THE WELFARE | |
| 26-0808475 | 1155 FRONT ST | August 27, 2026 4:26 pm | ACCIDENT - PERSONAL INJURY | |
| 26-0808473 | 625 TOMMY LEWIS DR | August 27, 2026 4:23 pm | ASSIST FIRE | |
| 26-0808471 | 28 E SKYLINE DR | August 27, 2026 4:21 pm | ORDINANCE VIOLATION | |
| 26-0808470 | 213 LOCUST AVE | August 27, 2026 4:20 pm | ATTEMPT TO CONTACT | |
| 26-0808468 | 410 ELSINGER BLVD | August 27, 2026 4:17 pm | ACCIDENT - PRIVATE PROPERTY | |
| 26-0808465 | 26-0808465 | 201 SKYLINE DR | August 27, 2026 4:08 pm | SHOPLIFTING |
| 26-0808464 | 875 SKYLINE DR | August 27, 2026 4:06 pm | ACCIDENT - PROPERTY DAMAGE | |
| 26-0808463 | 450 BRANNON RD | August 27, 2026 4:03 pm | RECKLESS DRIVER | |
| 26-0808462 | 129 I40WB | August 27, 2026 4:03 pm | ACCIDENT - PERSONAL INJURY | |
| 26-0808459 | 1 E PLEASANT VALLEY RD | August 27, 2026 4:01 pm | TRAFFIC PROBLEM-CONTROL | |
| 26-0808458 | 150 AMITY RD | August 27, 2026 4:00 pm | TRAFFIC PROBLEM-CONTROL | |
| 26-0808456 | 1151 SKYLINE DR | August 27, 2026 3:56 pm | ACCIDENT - PROPERTY DAMAGE | |
| 26-0808455 | 600 S AMITY RD | August 27, 2026 3:55 pm | RECKLESS DRIVER | |
| 26-0808454 | 1 SIDEBOTTOM RD | August 27, 2026 3:44 pm | ATTEMPT TO CONTACT | |
| 26-0808453 | 1298 HIGHWAY 64 E | August 27, 2026 3:32 pm | TRAFFIC PROBLEM-CONTROL | |
| 26-0808451 | 1129 E SIEBENMORGEN RD | August 27, 2026 3:25 pm | ACCIDENT - PROPERTY DAMAGE | |
| 26-0808449 | 125 I40WB | August 27, 2026 3:21 pm | ACCIDENT - PERSONAL INJURY | |
| 26-0808448 | 124 I40WB | August 27, 2026 3:21 pm | ACCIDENT - PERSONAL INJURY | |
| 26-0808445 | 545 SKYLINE DR | August 27, 2026 3:10 pm | CITIZEN ASSIST | |
| 26-0808441 | 218 ROOSTER RD | August 27, 2026 3:05 pm | ACCIDENT - PROPERTY DAMAGE | |
| 26-0808439 | 3595 PRINCE ST | August 27, 2026 3:02 pm | ACCIDENT - PROPERTY DAMAGE | |
| 26-0808435 | 26-0808435 | 500 S GERMAN LN | August 27, 2026 2:50 pm | MISDEMEANOR WARRANT SERVICE |
| 26-0808434 | 1755 RADEN ST | August 27, 2026 2:47 pm | CIVIL MATTER | |
| 26-0808433 | 500 S GERMAN LN | August 27, 2026 2:46 pm | FELONY WARRANT SERVICE | |
| 26-0808432 | 26-0808432 | 2420 MORSE DR | August 27, 2026 2:42 pm | HARASSMENT |
| 26-0808431 | 1155 SKYLINE DR | August 27, 2026 2:41 pm | CIVIL MATTER | |
| 26-0808427 | 1627 E OAK ST | August 27, 2026 2:28 pm | TRESPASSING | |
| 26-0808426 | 42 VALLEY ESTATES LOOP | August 27, 2026 2:24 pm | THEFT OF VEHICLE | |
| 26-0808424 | 1908 CREEKWOOD DR | August 27, 2026 2:14 pm | CIVIL STAND BY | |
| 26-0808422 | 2425 DAVE WARD DR | August 27, 2026 2:12 pm | INTOXICATED PERSON | |
| 26-0808414 | 74 LEONARD LOOP | August 27, 2026 1:40 pm | ATTEMPT TO CONTACT | |
| 26-0808411 | 425 W 6TH ST | August 27, 2026 1:20 pm | CIVIL MATTER | |
| 26-0808410 | 205 OAK ST | August 27, 2026 1:19 pm | TRESPASSING | |
| 26-0808408 | 329 SIMPSON RD | August 27, 2026 1:15 pm | TRAFFIC PROBLEM-CONTROL | |
| 26-0808407 | 230 S BROADVIEW | August 27, 2026 1:15 pm | ACCIDENT - PROPERTY DAMAGE | |
| 26-0808406 | 620 CHESTNUT ST | August 27, 2026 1:08 pm | ATTEMPT TO CONTACT | |
| 26-0808401 | 10 BEECHWOOD LN | August 27, 2026 12:48 pm | AGENCY ASSIST | |
| 26-0808400 | 195 CANEY CREEK RD | August 27, 2026 12:44 pm | HARASSING COMMUNICATIONS | |
| 26-0808398 | 334 SKUNK HOLLOW RD | August 27, 2026 12:36 pm | ATTEMPT TO CONTACT | |
| 26-0808397 | 530 S DONAGHEY AVE | August 27, 2026 12:31 pm | TERRORISTIC THREATENING | |
| 26-0808387 | 608 ROBINS ST | August 27, 2026 12:05 pm | SUPPLEMENT REPORT CALL | |
| 26-0808386 | 419 E OAK ST | August 27, 2026 12:02 pm | LOITERING | |
| 26-0808385 | 801 LOCUST AVE | August 27, 2026 12:00 pm | FRAUD | |
| 26-0808382 | 19 PETE LN | August 27, 2026 11:53 am | INTERFERENCE WITH CUSTODY | |
| 26-0808380 | 601 ACKLIN GAP RD | August 27, 2026 11:49 am | ACCIDENT - PROPERTY DAMAGE | |
| 26-0808377 | 26-0808377 | 2220 PRINCE ST | August 27, 2026 11:41 am | DISORDERLY CONDUCT |
| 26-0808375 | 405 HIGHWAY 25 N | August 27, 2026 11:34 am | MISDEMEANOR WARRANT SERVICE | |
| 26-0808372 | 384 HIGHWAY 65 N | August 27, 2026 11:27 am | ENDANGERING WELFARE OF MINOR | |
| 26-0808367 | 50 WHISPERING WIND CIR | August 27, 2026 11:12 am | ASSAULT | |
| 26-0808364 | 1105 PRAIRIE ST | August 27, 2026 11:02 am | ATTEMPT TO CONTACT | |
| 26-0808360 | 1105 PRAIRIE ST | August 27, 2026 10:57 am | ATTEMPT TO CONTACT | |
| 26-0808359 | 618 HIGHWAY 64 E | August 27, 2026 10:52 am | ACCIDENT - HIT AND RUN | |
| 26-0808354 | 132 I40WB | August 27, 2026 10:27 am | RECKLESS DRIVER | |
| 26-0808353 | 2235 DAVE WARD DR | August 27, 2026 10:20 am | CHECK ON THE WELFARE | |
| 26-0808351 | 26-0808351 | 4550 PRINCE ST | August 27, 2026 10:16 am | ATTEMPT TO CONTACT |
| 26-0808350 | 2200 BRUCE ST | August 27, 2026 10:15 am | ATTEMPT TO CONTACT | |
| 26-0808349 | 11 GRASSY LAKE RD | August 27, 2026 10:14 am | LITTERING | |
| 26-0808348 | 620 CHESTNUT ST | August 27, 2026 10:01 am | ATTEMPT TO CONTACT | |
| 26-0808346 | 40 WEST HILLS RD | August 27, 2026 9:48 am | CHECKING VEHICLE | |
| 26-0808344 | 1950 HARKRIDER ST | August 27, 2026 9:42 am | ATTEMPT TO CONTACT | |
| 26-0808343 | 620 3RD AVE | August 27, 2026 9:27 am | SUPPLEMENT REPORT CALL | |
| 26-0808341 | 30 GOLD LAKE CLUB RD | August 27, 2026 9:21 am | SERVING PAPERS | |
| 26-0808339 | 26-0808339 | 525 S GERMAN LN | August 27, 2026 9:11 am | MISDEMEANOR WARRANT SERVICE |
| 26-0808338 | 1105 PRAIRIE ST | August 27, 2026 9:05 am | ATTEMPT TO CONTACT | |
| 26-0808334 | 135 I40EB | August 27, 2026 9:00 am | ACCIDENT - PROPERTY DAMAGE | |
| 26-0808333 | 405 HIGHWAY 25 N | August 27, 2026 8:52 am | ATTEMPT TO CONTACT | |
| 26-0808331 | 1 REPUBLICAN VALLEY DR | August 27, 2026 8:46 am | ACCIDENT - PROPERTY DAMAGE | |
| 26-0808326 | 135 I40EB | August 27, 2026 8:21 am | ACCIDENT - PERSONAL INJURY | |
| 26-0808324 | 749 S FARRIS RD | August 27, 2026 8:16 am | TRAFFIC PROBLEM-CONTROL | |
| 26-0808323 | 1224 JERSEY ST | August 27, 2026 8:15 am | ATTEMPT TO CONTACT | |
| 26-0808322 | 2560 PRINCE ST | August 27, 2026 8:14 am | ASSIST FIRE | |
| 26-0808320 | 1155 SKYLINE DR | August 27, 2026 8:10 am | ACCIDENT - PRIVATE PROPERTY | |
| 26-0808317 | 3100 IRBY DR | August 27, 2026 7:57 am | BREAKING OR ENTERING | |
| 26-0808308 | 38 GARLAND SPRINGS RD | August 27, 2026 7:36 am | RECKLESS DRIVER | |
| 26-0808304 | 2085 KEATHLEY DR | August 27, 2026 7:20 am | BARKING DOG COMPLAINT | |
| 26-0808303 | 26-0808303 | 604 ROBINS ST | August 27, 2026 7:18 am | THEFT OF PROPERTY |
| 26-0808300 | 1222 HIGHWAY 107 N | August 27, 2026 7:13 am | ACCIDENT - PROPERTY DAMAGE | |
| 26-0808298 | 4 WILDCAT TRL | August 27, 2026 7:04 am | ACCIDENT - PERSONAL INJURY | |
| 26-0808294 | 3715 PRINCE ST | August 27, 2026 6:31 am | CHECK ON THE WELFARE | |
| 26-0808292 | 1405 S DONAGHEY AVE | August 27, 2026 5:59 am | CHECK ON THE WELFARE | |
| 26-0808290 | 328 HIGHWAY 64 E | August 27, 2026 5:46 am | ACCIDENT - PROPERTY DAMAGE | |
| 26-0808289 | 1600 CENTENNIAL CLUB DR | August 27, 2026 5:45 am | SUSPICIOUS ACTIVITY | |
| 26-0808286 | 26-0808286 | 1105 PRAIRIE ST | August 27, 2026 5:41 am | FRAUD |
| 26-0808282 | 284 HIGHWAY 365 | August 27, 2026 4:48 am | CHECK ON THE WELFARE | |
| 26-0808280 | 1032 CLIFTON ST | August 27, 2026 4:44 am | BREAKING OR ENTERING | |
| 26-0808278 | 22 JUNIOR DR | August 27, 2026 4:11 am | 911 HANGUP CALL | |
| 26-0808275 | 401 HIGHWAY 285 N | August 27, 2026 3:57 am | SUSPICIOUS ACTIVITY | |
| 26-0808272 | 1900 TYLER ST | August 27, 2026 3:37 am | CHECKING VEHICLE | |
| 26-0808268 | 1899 EAST GERMAN LN | August 27, 2026 3:04 am | CHECKING VEHICLE | |
| 26-0808265 | 1799 HIGHWAY 36 | August 27, 2026 1:46 am | CITIZEN ASSIST | |
| 26-0808261 | 43 HALEY CIR | August 27, 2026 1:08 am | REPOSSESSION | |
| 26-0808257 | 127 I40WB | August 27, 2026 12:33 am | ATTEMPT TO CONTACT | |
| 26-0808253 | 127 I40WB | August 26, 2026 11:14 pm | RECKLESS DRIVER | |
| 26-0808252 | 1105 PRAIRIE ST | August 26, 2026 11:03 pm | ATTEMPT TO CONTACT | |
| 26-0808250 | 26-0808250 | 1115 COLLEGE AVE | August 26, 2026 10:35 pm | CHECK ON THE WELFARE |
| 26-0808244 | 47 WEAVER FARM RD | August 26, 2026 10:07 pm | DISTURBANCE | |
| 26-0808243 | 801 LOCUST AVE | August 26, 2026 9:59 pm | THEFT OF PROPERTY | |
| 26-0808237 | 28 INTEGRITY LOOP | August 26, 2026 9:35 pm | DISTURBANCE | |
| 26-0808236 | 127 I40WB | August 26, 2026 9:28 pm | PURSUIT | |
| 26-0808233 | 1019 HIGHWAY 64 E | August 26, 2026 9:26 pm | CHECKING VEHICLE | |
| 26-0808226 | 1901 BLACKBERRY LN | August 26, 2026 9:06 pm | ROAD RAGE | |
| 26-0808219 | 1465 HIGHWAY 65 N | August 26, 2026 8:11 pm | ATTEMPT TO CONTACT | |
| 26-0808218 | 1599 ROBINSON AVE | August 26, 2026 8:00 pm | SUPPLEMENT REPORT CALL | |
| 26-0808217 | 48 BARHAM LOOP | August 26, 2026 7:59 pm | ATTEMPT TO CONTACT | |
| 26-0808216 | 537 HIGHWAY 64 E | August 26, 2026 7:49 pm | CHECK ON THE WELFARE | |
| 26-0808213 | 195 CANEY CREEK RD | August 26, 2026 7:40 pm | DISTURBANCE | |
| 26-0808211 | 2050 DAVE WARD DR | August 26, 2026 7:27 pm | CITIZEN ASSIST | |
| 26-0808206 | 799 S SALEM RD | August 26, 2026 7:00 pm | ACCIDENT - PERSONAL INJURY | |
| 26-0808205 | 110 E 6TH ST | August 26, 2026 7:00 pm | CIVIL MATTER | |
| 26-0808204 | 201 SKYLINE DR | August 26, 2026 6:59 pm | TRAFFIC PROBLEM-CONTROL | |
| 26-0808202 | 1701 STURGIS RD | August 26, 2026 6:46 pm | ASSIST FIRE | |
| 26-0808200 | 1060 TURNBERRY DR | August 26, 2026 6:40 pm | ATTEMPT TO CONTACT | |
| 26-0808199 | 1625 HARKRIDER ST | August 26, 2026 6:34 pm | WEATHER RELATED CALLS-PROBLEMS | |
| 26-0808198 | 1099 BRUCE ST | August 26, 2026 6:33 pm | WEATHER RELATED CALLS-PROBLEMS | |
| 26-0808197 | 1400 WASHINGTON AVE | August 26, 2026 6:30 pm | WEATHER RELATED CALLS-PROBLEMS | |
| 26-0808193 | 7 ROSEMOUNT DR | August 26, 2026 6:01 pm | TRESPASSING | |
| 26-0808192 | 1399 DONAGHEY AVE | August 26, 2026 6:01 pm | ACCIDENT - PROPERTY DAMAGE | |
| 26-0808191 | 201 DONAGHEY AVE | August 26, 2026 5:59 pm | ATTEMPT TO CONTACT | |
| 26-0808189 | 75 SALTILLO RD | August 26, 2026 5:51 pm | DOMESTIC DISTURBANCE | |
| 26-0808188 | 1105 PRAIRIE ST | August 26, 2026 5:48 pm | ATTEMPT TO CONTACT | |
| 26-0808187 | 801 LOCUST AVE | August 26, 2026 5:45 pm | WEATHER RELATED CALLS-PROBLEMS | |
| 26-0808186 | 620 ELSINGER BLVD | August 26, 2026 5:44 pm | CRIMINAL MISCHIEF | |
| 26-0808185 | 753 FARRIS RD | August 26, 2026 5:41 pm | ACCIDENT - PROPERTY DAMAGE | |
| 26-0808182 | 899 S HARKRIDER DR | August 26, 2026 5:16 pm | ACCIDENT - PERSONAL INJURY | |
| 26-0808180 | 911 OAK ST | August 26, 2026 5:13 pm | ASSIST FIRE | |
| 26-0808178 | 1060 TURNBERRY DR | August 26, 2026 5:11 pm | SUSPICIOUS ACTIVITY | |
| 26-0808176 | 1815 PRINCE ST | August 26, 2026 5:01 pm | BATTERY REPORT | |
| 26-0808175 | 1850 BLAKE LN | August 26, 2026 4:54 pm | ORDINANCE VIOLATION | |
| 26-0808174 | 599 LOCUST AVE | August 26, 2026 4:52 pm | TRAFFIC PROBLEM-CONTROL | |
| 26-0808173 | 4499 HIGHWAY 25 | August 26, 2026 4:44 pm | STALLED VEHICLE | |
| 26-0808169 | 130 HARKRIDER ST | August 26, 2026 4:37 pm | ASSIST FIRE | |
| 26-0808164 | 19 BEATTY LN | August 26, 2026 4:26 pm | CHECK ON THE WELFARE | |
| 26-0808162 | 2235 BRUCE ST | August 26, 2026 4:22 pm | ACCIDENT - PERSONAL INJURY | |
| 26-0808160 | 1500 MUSEUM RD | August 26, 2026 4:19 pm | ASSIST FIRE | |
| 26-0808155 | 35 NEWBERRY RD | August 26, 2026 4:08 pm | AGENCY ASSIST | |
| 26-0808152 | 620 CHESTNUT ST | August 26, 2026 4:05 pm | ATTEMPT TO CONTACT | |
| 26-0808149 | 801 LOCUST AVE | August 26, 2026 3:58 pm | ATTEMPT TO CONTACT | |
| 26-0808146 | 530 S DONAGHEY AVE | August 26, 2026 3:53 pm | DOMESTIC DISTURBANCE | |
| 26-0808142 | 1000 WESTERN ST | August 26, 2026 3:45 pm | TRAFFIC PROBLEM-CONTROL | |
| 26-0808139 | 26-0808139 | 1955 KEATHLEY DR | August 26, 2026 3:34 pm | FOUND PROPERTY |
| 26-0808137 | 12 ROLLING HILLS DR | August 26, 2026 3:29 pm | ATTEMPT TO CONTACT | |
| 26-0808129 | 3900 DAVE WARD DR | August 26, 2026 3:00 pm | CITIZEN ASSIST | |
| 26-0808128 | 174 APPLEYARD RD | August 26, 2026 2:58 pm | CIVIL MATTER | |
| 26-0808127 | 1405 S DONAGHEY AVE | August 26, 2026 2:55 pm | ATTEMPT TO CONTACT | |
| 26-0808125 | 1075 COLLIER DR | August 26, 2026 2:47 pm | CIVIL MATTER | |
| 26-0808124 | 9 JEAN LN | August 26, 2026 2:45 pm | SUSPICIOUS PERSON | |
| 26-0808123 | 2099 TYLER ST | August 26, 2026 2:38 pm | RECKLESS DRIVER | |
| 26-0808121 | 2605 COLLEGE AVE | August 26, 2026 2:27 pm | ACCIDENT - PROPERTY DAMAGE | |
| 26-0808119 | 800 E 6TH ST | August 26, 2026 2:22 pm | ACCIDENT - PERSONAL INJURY | |
| 26-0808117 | 1828 HOGAN LN | August 26, 2026 2:20 pm | ATTEMPT TO CONTACT | |
| 26-0808116 | 12 ROLLING HILLS DR | August 26, 2026 2:20 pm | ATTEMPT TO CONTACT | |
| 26-0808113 | 1800 HUTTO ST | August 26, 2026 2:15 pm | CHECK ON THE WELFARE | |
| 26-0808111 | 7 BARBARA POINTE | August 26, 2026 2:13 pm | LOUD NOISE-MUSIC | |
| 26-0808109 | 1105 PRAIRIE ST | August 26, 2026 2:07 pm | ATTEMPT TO CONTACT | |
| 26-0808108 | 500 S GERMAN LN | August 26, 2026 2:06 pm | ATTEMPT TO CONTACT | |
| 26-0808106 | 77 HEFFINGTON CEMETERY RD | August 26, 2026 1:59 pm | AGENCY ASSIST | |
| 26-0808104 | 16 CEDAR HILL RD | August 26, 2026 1:54 pm | CHECK ON THE WELFARE | |
| 26-0808100 | 1105 PRAIRIE ST | August 26, 2026 1:34 pm | ATTEMPT TO CONTACT | |
| 26-0808098 | 414 HARKRIDER ST | August 26, 2026 1:29 pm | ACCIDENT - PROPERTY DAMAGE | |
| 26-0808097 | 2215 BROADVIEW AVE | August 26, 2026 1:22 pm | CIVIL MATTER | |
| 26-0808096 | 1310 JOSITA CIR | August 26, 2026 1:21 pm | FRAUD | |
| 26-0808095 | 3205 CIMARRON DR | August 26, 2026 1:19 pm | ATTEMPT TO CONTACT | |
| 26-0808093 | 1120 E OAK ST | August 26, 2026 1:07 pm | ACCIDENT - PRIVATE PROPERTY | |
| 26-0808092 | 174 APPLEYARD RD | August 26, 2026 1:07 pm | TRESPASSING | |
| 26-0808091 | 299 DONAGHEY AVE | August 26, 2026 12:58 pm | ACCIDENT - PROPERTY DAMAGE | |
| 26-0808088 | 101 OAK ST | August 26, 2026 12:50 pm | PARKING VIOLATION | |
| 26-0808085 | 1260 S AMITY RD | August 26, 2026 12:42 pm | ACCIDENT - PRIVATE PROPERTY | |
| 26-0808084 | 75 EASTERWOOD POINT RD | August 26, 2026 12:40 pm | ACCIDENT - PERSONAL INJURY | |
| 26-0808080 | 1060 S AMITY RD | August 26, 2026 12:29 pm | CITIZEN ASSIST | |
| 26-0808079 | 2530 MARIE DR | August 26, 2026 12:27 pm | LOST CHILD | |
| 26-0808075 | 314 STURGIS RD | August 26, 2026 12:14 pm | STALLED VEHICLE | |
| 26-0808073 | 955 S GERMAN LN | August 26, 2026 12:07 pm | ATTEMPT TO CONTACT | |
| 26-0808072 | 600 5TH AVE | August 26, 2026 12:02 pm | CHECKING VEHICLE | |
| 26-0808069 | 207 WILLOW ST | August 26, 2026 11:56 am | TRESPASSING | |
| 26-0808067 | 102 OAK ST | August 26, 2026 11:45 am | ATTEMPT TO CONTACT | |
| 26-0808064 | 510 WINDMILL CIR | August 26, 2026 11:38 am | SUSPICIOUS ACTIVITY | |
| 26-0808061 | 2125 HARKRIDER ST | August 26, 2026 11:29 am | ASSIST FIRE | |
| 26-0808059 | 1105 PRAIRIE ST | August 26, 2026 11:27 am | ATTEMPT TO CONTACT | |
| 26-0808058 | 899 E OAK ST | August 26, 2026 11:26 am | TRAFFIC PROBLEM-CONTROL | |
| 26-0808055 | 26-0808055 | 1105 PRAIRIE ST | August 26, 2026 11:23 am | MISDEMEANOR WARRANT SERVICE |
| 26-0808052 | 2840 DAVE WARD DR | August 26, 2026 11:18 am | ATTEMPT TO CONTACT | |
| 26-0808051 | 330 HIGHWAY 65 N | August 26, 2026 11:16 am | ATTEMPT TO CONTACT | |
| 26-0808050 | 2310 SANDERS ST | August 26, 2026 11:15 am | CHECKING VEHICLE | |
| 26-0808049 | 10 REBECCA LN | August 26, 2026 11:09 am | CHECK ON THE WELFARE | |
| 26-0808045 | 1090 SKYLINE DR | August 26, 2026 10:52 am | ATTEMPT TO CONTACT | |
| 26-0808044 | 599 E DAVE WARD DR | August 26, 2026 10:48 am | ACCIDENT - PROPERTY DAMAGE | |
| 26-0808036 | 300 S DONAGHEY AVE | August 26, 2026 10:39 am | ATTEMPT TO CONTACT | |
| 26-0808035 | 714 FARRIS RD | August 26, 2026 10:38 am | REPOSSESSION | |
| 26-0808034 | 109 N MAIN ST | August 26, 2026 10:38 am | CHECK ON THE WELFARE | |
| 26-0808033 | 26-0808033 | 2300 EAST ST | August 26, 2026 10:33 am | MISDEMEANOR WARRANT SERVICE |
| 26-0808031 | 132 I40WB | August 26, 2026 10:29 am | RECKLESS DRIVER | |
| 26-0808030 | 710 S COUNTRY CLUB RD | August 26, 2026 10:28 am | ACCIDENT - PRIVATE PROPERTY | |
| 26-0808026 | 211 GARLAND SPRINGS RD | August 26, 2026 10:13 am | CIVIL MATTER | |
| 26-0808025 | 1105 PRAIRIE ST | August 26, 2026 10:04 am | ATTEMPT TO CONTACT | |
| 26-0808024 | 999 MILL ST | August 26, 2026 9:53 am | ACCIDENT - PROPERTY DAMAGE | |
| 26-0808021 | 1105 PRAIRIE ST | August 26, 2026 9:32 am | SUPPLEMENT REPORT CALL | |
| 26-0808020 | 12 SILVERTHORN DR | August 26, 2026 9:24 am | SUSPICIOUS VEHICLE | |
| 26-0808016 | 850 OAK ST | August 26, 2026 8:52 am | SUPPLEMENT REPORT CALL | |
| 26-0808012 | 159 LOWER RIDGE RD | August 26, 2026 8:34 am | AGENCY ASSIST | |
| 26-0808010 | 1250 S AMITY RD | August 26, 2026 8:30 am | LOST PROPERTY | |
| 26-0808009 | 10 LOWER RIDGE RD | August 26, 2026 8:27 am | ENDANGERING WELFARE OF MINOR | |
| 26-0808008 | 431 HIGHWAY 285 N | August 26, 2026 8:23 am | ATTEMPT TO CONTACT | |
| 26-0808006 | 127 I40EB | August 26, 2026 8:19 am | CHECKING PERSON | |
| 26-0808005 | 2500 PEGGY LN | August 26, 2026 8:18 am | ATTEMPT TO CONTACT | |
| 26-0808004 | 360 SHAW ST | August 26, 2026 8:11 am | ATTEMPT TO CONTACT | |
| 26-0808002 | 620 CHESTNUT ST | August 26, 2026 8:06 am | ACCIDENT - PRIVATE PROPERTY | |
| 26-0808001 | 159 LOWER RIDGE RD | August 26, 2026 8:04 am | ACCIDENT - PROPERTY DAMAGE | |
| 26-0807999 | 3 HIGHWAY 124 W | August 26, 2026 8:00 am | ACCIDENT - PERSONAL INJURY | |
| 26-0807998 | 551 HARKRIDER ST | August 26, 2026 7:56 am | ACCIDENT - PERSONAL INJURY | |
| 26-0807990 | 2305 KRYSTAL KREEK DR | August 26, 2026 7:46 am | AGENCY ASSIST | |
| 26-0807989 | 151 PLANTATION DR | August 26, 2026 7:43 am | PROPERTY DAMAGE | |
| 26-0807988 | 2305 KRYSTAL KREEK DR | August 26, 2026 7:40 am | AGENCY ASSIST | |
| 26-0807987 | 1220 E OAK ST | August 26, 2026 7:40 am | ACCIDENT - PROPERTY DAMAGE | |
| 26-0807984 | 43 MILLER ST | August 26, 2026 7:34 am | SUSPICIOUS ACTIVITY | |
| 26-0807978 | 867 FENDLEY DR | August 26, 2026 6:10 am | REPOSSESSION | |
| 26-0807977 | 9 TUPELO RD | August 26, 2026 5:41 am | ACCIDENT - PERSONAL INJURY | |
| 26-0807975 | 26-0807975 | 2840 DAVE WARD DR | August 26, 2026 5:22 am | DOMESTIC DISTURBANCE |
| 26-0807973 | 8 NOB HILL DR | August 26, 2026 5:00 am | BURGLARY | |
| 26-0807971 | 26-0807971 | 400 S DONAGHEY AVE | August 26, 2026 4:53 am | BATTERY REPORT |
| 26-0807970 | 18 COPPER SPRINGS DR | August 26, 2026 4:26 am | REPOSSESSION | |
| 26-0807969 | 1905 OLD MORRILTON HIGHWAY | August 26, 2026 4:21 am | TRESPASSING | |
| 26-0807966 | 26-0807966 | 1090 SKYLINE DR | August 26, 2026 3:11 am | ARMED SUBJECT |
| 26-0807965 | 855 S SALEM RD | August 26, 2026 3:10 am | ATTEMPT TO CONTACT | |
| 26-0807964 | 1019 S DONAGHEY AVE | August 26, 2026 3:08 am | CHECKING PERSON | |
| 26-0807961 | 125 HIGHWAY 365 | August 26, 2026 2:50 am | CHECK ON THE WELFARE | |
| 26-0807959 | 558 HIGHWAY 365 | August 26, 2026 2:36 am | CHECKING VEHICLE | |
| 26-0807954 | 405 WATKINS ST | August 26, 2026 2:14 am | REPOSSESSION | |
| 26-0807953 | 67 PILGRIM REST RD | August 26, 2026 1:58 am | ATTEMPT TO CONTACT | |
| 26-0807952 | 155 FARRIS RD | August 26, 2026 1:57 am | CHECKING PERSON | |
| 26-0807949 | 7 W CASE CV | August 26, 2026 1:33 am | SHOTS FIRED | |
| 26-0807947 | 860 TURNER TRL | August 26, 2026 12:36 am | ATTEMPT TO CONTACT | |
| 26-0807946 | 1601 HOGAN LN | August 26, 2026 12:34 am | HARASSMENT | |
| 26-0807945 | 26-0807945 | 525 S GERMAN LN | August 26, 2026 12:25 am | MISDEMEANOR WARRANT SERVICE |
| 26-0807944 | 4 CLINTON RD | August 26, 2026 12:12 am | RECKLESS DRIVER |